GEFSCGP_prec_meanprecacc_012.txt.gz
Total_Precipitation_Accumulation
0.00 0.00 0.00 0.00 0.00 0.00 0.00 0.00 0.00 0.00 0.00 0.00 0.00 0.00 0.00 0.00 0.00 0.00 0.00 0.00 0.00 0.00 0.01 0.03 0.10 0.20 0.30 0.63 0.81 0.54 0.26 0.14 0.06 0.05 0.06 0.04 0.02 0.02 0.03 0.03 0.04 0.07 0.10 0.11
0.00 0.00 0.00 0.00 0.00 0.00 0.00 0.00 0.00 0.00 0.00 0.00 0.00 0.00 0.00 0.00 0.00 0.00 0.00 0.00 0.00 0.00 0.01 0.01 0.03 0.06 0.13 0.23 0.30 0.29 0.27 0.25 0.12 0.09 0.09 0.10 0.07 0.06 0.08 0.11 0.18 0.21 0.18 0.13
0.00 0.00 0.00 0.00 0.00 0.00 0.00 0.00 0.00 0.00 0.00 0.00 0.00 0.00 0.00 0.00 0.00 0.00 0.00 0.00 0.00 0.00 0.00 0.00 0.01 0.02 0.04 0.08 0.12 0.16 0.18 0.19 0.12 0.08 0.08 0.12 0.15 0.18 0.23 0.29 0.33 0.27 0.19 0.12
0.00 0.00 0.00 0.00 0.00 0.00 0.00 0.00 0.00 0.00 0.00 0.00 0.00 0.00 0.00 0.00 0.00 0.00 0.00 0.00 0.00 0.00 0.00 0.00 0.00 0.01 0.01 0.02 0.03 0.04 0.07 0.09 0.09 0.08 0.08 0.14 0.21 0.25 0.26 0.20 0.18 0.13 0.07 0.05
0.00 0.00 0.00 0.00 0.00 0.00 0.00 0.00 0.00 0.00 0.00 0.00 0.00 0.00 0.00 0.00 0.00 0.00 0.01 0.01 0.01 0.00 0.00 0.00 0.00 0.00 0.00 0.00 0.01 0.02 0.03 0.03 0.03 0.04 0.06 0.10 0.10 0.08 0.05 0.04 0.02 0.02 0.01 0.00
0.00 0.00 0.00 0.00 0.00 0.00 0.00 0.00 0.00 0.00 0.00 0.00 0.00 0.00 0.00 0.00 0.00 0.00 0.01 0.01 0.00 0.00 0.00 0.00 0.00 0.00 0.00 0.00 0.01 0.01 0.01 0.01 0.01 0.01 0.01 0.01 0.01 0.01 0.00 0.00 0.00 0.00 0.00 0.00
0.00 0.00 0.00 0.00 0.00 0.00 0.00 0.00 0.00 0.00 0.00 0.00 0.00 0.00 0.00 0.00 0.00 0.00 0.01 0.01 0.00 0.00 0.00 0.00 0.00 0.00 0.00 0.00 0.00 0.00 0.00 0.00 0.00 0.00 0.00 0.00 0.00 0.00 0.00 0.00 0.00 0.00 0.00 0.00
0.00 0.00 0.00 0.00 0.00 0.00 0.00 0.00 0.00 0.00 0.00 0.00 0.00 0.00 0.00 0.00 0.00 0.02 0.02 0.02 0.00 0.00 0.00 0.00 0.00 0.00 0.00 0.00 0.00 0.00 0.00 0.00 0.00 0.00 0.00 0.00 0.00 0.00 0.00 0.00 0.00 0.00 0.00 0.00
0.00 0.00 0.00 0.00 0.00 0.00 0.00 0.00 0.00 0.00 0.00 0.00 0.00 0.00 0.01 0.00 0.01 0.04 0.04 0.03 0.01 0.00 0.00 0.00 0.00 0.00 0.00 0.00 0.00 0.00 0.00 0.00 0.00 0.00 0.00 0.00 0.00 0.00 0.00 0.00 0.00 0.00 0.00 0.00
0.00 0.00 0.00 0.00 0.00 0.00 0.00 0.00 0.00 0.00 0.00 0.00 0.00 0.00 0.00 0.00 0.01 0.02 0.04 0.02 0.01 0.01 0.01 0.00 0.00 0.00 0.00 0.00 0.00 0.00 0.00 0.00 0.00 0.00 0.00 0.00 0.00 0.00 0.00 0.00 0.00 0.00 0.01 0.01
0.00 0.00 0.00 0.00 0.00 0.00 0.00 0.00 0.00 0.00 0.00 0.00 0.00 0.00 0.00 0.00 0.01 0.02 0.03 0.03 0.02 0.01 0.01 0.00 0.00 0.00 0.00 0.00 0.00 0.00 0.00 0.00 0.00 0.00 0.00 0.00 0.00 0.00 0.00 0.00 0.01 0.01 0.01 0.02
0.00 0.00 0.00 0.00 0.00 0.00 0.00 0.00 0.00 0.00 0.00 0.00 0.00 0.00 0.00 0.00 0.02 0.06 0.07 0.04 0.02 0.01 0.01 0.00 0.00 0.00 0.00 0.00 0.00 0.00 0.00 0.00 0.00 0.00 0.00 0.00 0.00 0.01 0.01 0.01 0.01 0.02 0.02 0.03
0.00 0.00 0.00 0.00 0.00 0.00 0.00 0.00 0.00 0.00 0.00 0.00 0.00 0.01 0.01 0.01 0.05 0.10 0.11 0.06 0.02 0.01 0.01 0.00 0.00 0.00 0.00 0.00 0.00 0.00 0.00 0.00 0.00 0.00 0.00 0.00 0.00 0.01 0.01 0.02 0.02 0.02 0.03 0.03
0.00 0.00 0.00 0.00 0.00 0.00 0.00 0.00 0.01 0.01 0.00 0.01 0.01 0.03 0.04 0.10 0.16 0.15 0.12 0.07 0.04 0.02 0.01 0.01 0.00 0.00 0.00 0.00 0.00 0.00 0.00 0.00 0.00 0.00 0.00 0.00 0.01 0.01 0.02 0.02 0.03 0.03 0.03 0.03
0.00 0.00 0.00 0.00 0.00 0.00 0.01 0.01 0.01 0.02 0.02 0.02 0.02 0.06 0.11 0.21 0.27 0.23 0.16 0.10 0.07 0.04 0.03 0.01 0.00 0.00 0.00 0.00 0.00 0.00 0.00 0.00 0.00 0.00 0.01 0.01 0.01 0.01 0.02 0.03 0.03 0.02 0.01 0.01
0.00 0.00 0.00 0.00 0.00 0.00 0.00 0.01 0.01 0.01 0.02 0.02 0.04 0.09 0.14 0.19 0.20 0.18 0.14 0.11 0.10 0.07 0.03 0.01 0.00 0.00 0.00 0.00 0.00 0.00 0.00 0.00 0.00 0.01 0.01 0.01 0.01 0.01 0.02 0.02 0.01 0.01 0.01 0.01
0.00 0.00 0.00 0.00 0.00 0.00 0.00 0.00 0.00 0.01 0.01 0.01 0.04 0.09 0.09 0.12 0.13 0.13 0.11 0.10 0.09 0.05 0.01 0.00 0.00 0.00 0.00 0.00 0.00 0.00 0.00 0.00 0.00 0.01 0.01 0.01 0.00 0.01 0.01 0.00 0.00 0.01 0.01 0.01
0.00 0.01 0.02 0.01 0.01 0.01 0.00 0.00 0.00 0.01 0.02 0.01 0.01 0.02 0.03 0.04 0.05 0.06 0.06 0.05 0.03 0.01 0.00 0.00 0.00 0.00 0.00 0.00 0.00 0.00 0.00 0.00 0.00 0.00 0.00 0.00 0.00 0.00 0.00 0.00 0.01 0.01 0.01 0.01
0.00 0.02 0.07 0.06 0.06 0.03 0.01 0.00 0.00 0.01 0.01 0.01 0.02 0.02 0.02 0.02 0.03 0.03 0.02 0.02 0.01 0.00 0.00 0.00 0.00 0.00 0.00 0.00 0.00 0.00 0.00 0.00 0.00 0.00 0.00 0.00 0.00 0.00 0.00 0.01 0.01 0.01 0.01 0.01
0.00 0.01 0.08 0.12 0.14 0.11 0.04 0.02 0.01 0.01 0.03 0.02 0.02 0.02 0.02 0.02 0.04 0.03 0.02 0.01 0.00 0.00 0.00 0.00 0.00 0.00 0.00 0.00 0.00 0.00 0.00 0.00 0.00 0.00 0.00 0.00 0.00 0.00 0.01 0.01 0.01 0.01 0.01 0.01
0.02 0.04 0.11 0.17 0.21 0.18 0.09 0.06 0.04 0.06 0.06 0.07 0.05 0.04 0.05 0.06 0.05 0.03 0.01 0.00 0.00 0.00 0.00 0.00 0.00 0.00 0.00 0.00 0.00 0.00 0.00 0.00 0.00 0.00 0.00 0.00 0.00 0.00 0.00 0.00 0.01 0.01 0.01 0.00
0.12 0.13 0.14 0.17 0.23 0.26 0.10 0.08 0.10 0.11 0.09 0.11 0.08 0.07 0.06 0.05 0.03 0.01 0.00 0.00 0.00 0.00 0.00 0.00 0.00 0.00 0.00 0.00 0.00 0.00 0.01 0.00 0.00 0.00 0.00 0.00 0.00 0.00 0.00 0.00 0.00 0.00 0.00 0.00
0.34 0.24 0.19 0.20 0.22 0.15 0.09 0.07 0.06 0.08 0.10 0.09 0.08 0.07 0.04 0.02 0.01 0.00 0.00 0.00 0.00 0.00 0.00 0.00 0.00 0.00 0.00 0.00 0.00 0.00 0.00 0.00 0.00 0.00 0.00 0.00 0.00 0.00 0.00 0.00 0.00 0.00 0.00 0.00
0.41 0.36 0.29 0.24 0.21 0.16 0.11 0.07 0.05 0.05 0.07 0.08 0.08 0.06 0.03 0.01 0.00 0.00 0.00 0.00 0.00 0.00 0.00 0.00 0.00 0.00 0.00 0.00 0.00 0.00 0.00 0.00 0.00 0.00 0.00 0.00 0.00 0.00 0.00 0.00 0.00 0.00 0.00 0.00
0.26 0.43 0.47 0.40 0.32 0.23 0.10 0.06 0.05 0.04 0.05 0.05 0.03 0.01 0.00 0.00 0.00 0.00 0.00 0.00 0.00 0.00 0.00 0.00 0.00 0.00 0.00 0.00 0.00 0.00 0.00 0.00 0.00 0.00 0.00 0.00 0.00 0.00 0.00 0.00 0.00 0.00 0.00 0.00
0.08 0.27 0.54 0.60 0.38 0.23 0.08 0.03 0.02 0.02 0.01 0.01 0.00 0.00 0.00 0.00 0.00 0.00 0.00 0.00 0.00 0.00 0.00 0.00 0.00 0.00 0.00 0.00 0.00 0.00 0.00 0.00 0.00 0.00 0.00 0.00 0.00 0.00 0.00 0.00 0.00 0.00 0.00 0.00

GEFSCGP_prec_meanprecacc_018.txt.gz
Total_Precipitation_Accumulation
0.00 0.00 0.00 0.00 0.00 0.00 0.00 0.00 0.00 0.00 0.00 0.00 0.00 0.00 0.00 0.00 0.00 0.00 0.00 0.00 0.00 0.01 0.01 0.04 0.12 0.25 0.36 0.68 0.86 0.58 0.28 0.15 0.06 0.05 0.06 0.04 0.02 0.02 0.03 0.03 0.04 0.07 0.10 0.12
0.00 0.00 0.00 0.00 0.00 0.00 0.00 0.00 0.00 0.00 0.00 0.00 0.00 0.00 0.00 0.00 0.00 0.00 0.00 0.00 0.00 0.01 0.01 0.02 0.06 0.12 0.20 0.31 0.36 0.34 0.29 0.26 0.13 0.09 0.09 0.10 0.08 0.07 0.08 0.11 0.18 0.22 0.19 0.13
0.00 0.00 0.00 0.00 0.00 0.00 0.00 0.00 0.00 0.00 0.00 0.00 0.00 0.00 0.00 0.00 0.00 0.00 0.00 0.00 0.00 0.00 0.01 0.01 0.04 0.08 0.12 0.16 0.19 0.20 0.21 0.21 0.13 0.08 0.08 0.12 0.16 0.18 0.23 0.29 0.33 0.28 0.19 0.12
0.00 0.00 0.00 0.00 0.00 0.00 0.00 0.00 0.00 0.00 0.00 0.00 0.00 0.00 0.00 0.00 0.00 0.00 0.01 0.01 0.01 0.01 0.01 0.01 0.03 0.06 0.08 0.09 0.08 0.07 0.10 0.11 0.10 0.08 0.08 0.14 0.21 0.25 0.26 0.20 0.18 0.13 0.07 0.05
0.00 0.00 0.00 0.00 0.00 0.00 0.00 0.00 0.00 0.00 0.00 0.00 0.00 0.00 0.00 0.00 0.00 0.00 0.01 0.02 0.02 0.01 0.02 0.02 0.03 0.05 0.07 0.07 0.05 0.05 0.05 0.05 0.04 0.05 0.06 0.10 0.10 0.08 0.05 0.04 0.02 0.02 0.01 0.00
0.00 0.00 0.00 0.00 0.00 0.00 0.00 0.00 0.00 0.00 0.00 0.00 0.00 0.00 0.00 0.00 0.00 0.01 0.01 0.02 0.02 0.02 0.02 0.02 0.03 0.05 0.05 0.05 0.04 0.03 0.03 0.02 0.01 0.01 0.01 0.01 0.01 0.01 0.00 0.00 0.00 0.00 0.00 0.00
0.00 0.00 0.00 0.00 0.00 0.00 0.00 0.00 0.00 0.00 0.00 0.00 0.00 0.00 0.00 0.00 0.00 0.00 0.01 0.01 0.02 0.02 0.02 0.02 0.04 0.04 0.03 0.02 0.01 0.01 0.01 0.00 0.00 0.00 0.00 0.00 0.00 0.00 0.00 0.00 0.00 0.00 0.00 0.00
0.00 0.00 0.00 0.00 0.00 0.00 0.00 0.00 0.00 0.00 0.00 0.00 0.00 0.00 0.00 0.00 0.00 0.02 0.03 0.02 0.02 0.02 0.02 0.03 0.04 0.03 0.02 0.01 0.01 0.00 0.00 0.00 0.00 0.00 0.00 0.00 0.00 0.00 0.00 0.00 0.00 0.00 0.00 0.00
0.00 0.00 0.00 0.00 0.00 0.00 0.00 0.00 0.00 0.00 0.00 0.00 0.00 0.00 0.01 0.00 0.01 0.04 0.05 0.03 0.02 0.03 0.04 0.05 0.04 0.03 0.02 0.01 0.00 0.00 0.00 0.00 0.00 0.00 0.00 0.00 0.00 0.00 0.00 0.00 0.00 0.00 0.00 0.00
0.00 0.00 0.00 0.00 0.00 0.00 0.00 0.00 0.00 0.00 0.00 0.00 0.00 0.00 0.00 0.00 0.01 0.02 0.04 0.03 0.02 0.04 0.07 0.07 0.04 0.03 0.02 0.01 0.00 0.00 0.00 0.00 0.00 0.00 0.00 0.00 0.00 0.00 0.00 0.00 0.00 0.00 0.01 0.01
0.00 0.00 0.00 0.00 0.00 0.00 0.00 0.00 0.00 0.00 0.00 0.00 0.00 0.00 0.00 0.00 0.01 0.02 0.03 0.04 0.05 0.07 0.09 0.08 0.05 0.04 0.03 0.01 0.00 0.00 0.00 0.00 0.00 0.00 0.00 0.00 0.00 0.00 0.00 0.00 0.01 0.01 0.01 0.02
0.00 0.00 0.00 0.00 0.00 0.00 0.00 0.00 0.00 0.00 0.00 0.00 0.00 0.00 0.00 0.00 0.03 0.06 0.08 0.08 0.08 0.09 0.09 0.07 0.05 0.04 0.02 0.01 0.01 0.01 0.00 0.00 0.00 0.00 0.00 0.00 0.00 0.01 0.01 0.01 0.01 0.02 0.02 0.03
0.00 0.00 0.00 0.00 0.00 0.00 0.00 0.00 0.00 0.00 0.00 0.00 0.00 0.01 0.01 0.01 0.06 0.13 0.15 0.11 0.08 0.07 0.06 0.05 0.04 0.03 0.02 0.02 0.02 0.01 0.01 0.00 0.00 0.00 0.00 0.00 0.00 0.01 0.01 0.02 0.02 0.02 0.03 0.03
0.00 0.00 0.00 0.00 0.00 0.00 0.00 0.00 0.01 0.01 0.01 0.01 0.01 0.03 0.04 0.11 0.18 0.18 0.16 0.12 0.09 0.07 0.07 0.06 0.06 0.06 0.05 0.04 0.03 0.02 0.01 0.00 0.00 0.00 0.00 0.00 0.01 0.01 0.02 0.02 0.03 0.03 0.03 0.03
0.00 0.00 0.00 0.00 0.00 0.00 0.01 0.01 0.01 0.02 0.03 0.02 0.02 0.06 0.11 0.21 0.29 0.26 0.20 0.15 0.13 0.12 0.12 0.13 0.14 0.11 0.08 0.05 0.02 0.01 0.00 0.00 0.00 0.00 0.01 0.01 0.01 0.01 0.02 0.03 0.03 0.02 0.01 0.01
0.00 0.00 0.00 0.00 0.00 0.00 0.00 0.01 0.01 0.01 0.02 0.03 0.04 0.09 0.14 0.20 0.21 0.21 0.18 0.17 0.19 0.22 0.23 0.20 0.14 0.08 0.05 0.02 0.01 0.00 0.00 0.00 0.00 0.01 0.01 0.01 0.01 0.01 0.02 0.02 0.01 0.01 0.01 0.01
0.00 0.00 0.00 0.00 0.00 0.00 0.00 0.00 0.00 0.01 0.01 0.01 0.04 0.09 0.09 0.12 0.13 0.14 0.13 0.15 0.21 0.24 0.20 0.13 0.07 0.03 0.01 0.00 0.00 0.00 0.00 0.00 0.00 0.01 0.01 0.01 0.00 0.01 0.01 0.00 0.00 0.01 0.01 0.01
0.00 0.01 0.02 0.01 0.01 0.01 0.00 0.00 0.00 0.01 0.02 0.01 0.01 0.02 0.03 0.04 0.07 0.09 0.10 0.13 0.15 0.15 0.11 0.06 0.04 0.02 0.01 0.00 0.00 0.00 0.00 0.00 0.00 0.00 0.00 0.00 0.00 0.00 0.00 0.00 0.01 0.01 0.01 0.01
0.00 0.02 0.07 0.06 0.06 0.03 0.01 0.00 0.00 0.01 0.01 0.01 0.02 0.02 0.02 0.03 0.06 0.06 0.07 0.09 0.11 0.12 0.09 0.06 0.04 0.02 0.01 0.00 0.00 0.00 0.00 0.00 0.00 0.00 0.00 0.00 0.00 0.00 0.00 0.01 0.01 0.01 0.01 0.01
0.00 0.01 0.08 0.12 0.14 0.11 0.04 0.02 0.01 0.01 0.03 0.02 0.02 0.02 0.02 0.04 0.06 0.06 0.06 0.07 0.07 0.07 0.08 0.07 0.05 0.02 0.01 0.00 0.00 0.00 0.00 0.00 0.00 0.00 0.00 0.00 0.00 0.00 0.01 0.01 0.01 0.01 0.01 0.01
0.02 0.04 0.11 0.17 0.21 0.18 0.09 0.06 0.04 0.06 0.06 0.07 0.05 0.05 0.08 0.10 0.11 0.09 0.06 0.05 0.06 0.07 0.09 0.08 0.05 0.01 0.00 0.00 0.00 0.00 0.00 0.00 0.00 0.00 0.00 0.00 0.00 0.00 0.00 0.00 0.01 0.01 0.01 0.00
0.12 0.13 0.14 0.17 0.23 0.26 0.10 0.08 0.10 0.11 0.09 0.11 0.09 0.09 0.10 0.12 0.11 0.08 0.06 0.06 0.08 0.10 0.10 0.06 0.02 0.00 0.00 0.00 0.00 0.00 0.01 0.00 0.00 0.00 0.00 0.00 0.00 0.00 0.00 0.00 0.00 0.00 0.00 0.00
0.34 0.24 0.19 0.21 0.22 0.15 0.09 0.07 0.07 0.09 0.11 0.11 0.11 0.11 0.12 0.16 0.17 0.14 0.12 0.13 0.13 0.11 0.07 0.03 0.01 0.00 0.00 0.00 0.00 0.00 0.00 0.00 0.00 0.00 0.00 0.00 0.00 0.00 0.00 0.00 0.00 0.00 0.00 0.00
0.41 0.36 0.29 0.24 0.21 0.16 0.11 0.08 0.06 0.07 0.11 0.13 0.15 0.17 0.21 0.26 0.24 0.19 0.14 0.09 0.05 0.02 0.01 0.00 0.00 0.00 0.00 0.00 0.00 0.00 0.00 0.00 0.00 0.00 0.00 0.00 0.00 0.00 0.00 0.00 0.00 0.00 0.00 0.00
0.26 0.43 0.48 0.42 0.35 0.26 0.13 0.09 0.11 0.12 0.16 0.22 0.26 0.25 0.24 0.20 0.13 0.07 0.04 0.01 0.00 0.00 0.00 0.00 0.00 0.00 0.00 0.00 0.00 0.00 0.00 0.00 0.00 0.00 0.00 0.00 0.00 0.00 0.00 0.00 0.00 0.00 0.00 0.00
0.09 0.28 0.58 0.68 0.47 0.35 0.24 0.20 0.25 0.27 0.25 0.25 0.23 0.17 0.10 0.05 0.02 0.00 0.00 0.00 0.00 0.00 0.00 0.00 0.00 0.00 0.00 0.00 0.00 0.00 0.00 0.00 0.00 0.00 0.00 0.00 0.00 0.00 0.00 0.00 0.00 0.00 0.00 0.00

GEFSCGP_prec_meanprecacc_024.txt.gz
Total_Precipitation_Accumulation
0.00 0.00 0.00 0.00 0.00 0.00 0.00 0.00 0.00 0.00 0.00 0.00 0.00 0.00 0.00 0.00 0.00 0.00 0.00 0.00 0.00 0.01 0.02 0.05 0.14 0.30 0.41 0.75 0.94 0.65 0.36 0.23 0.12 0.10 0.10 0.07 0.04 0.03 0.03 0.03 0.04 0.07 0.10 0.12
0.00 0.00 0.00 0.00 0.00 0.00 0.00 0.00 0.00 0.00 0.00 0.00 0.00 0.00 0.00 0.00 0.00 0.00 0.00 0.00 0.00 0.01 0.02 0.04 0.10 0.19 0.31 0.45 0.50 0.50 0.45 0.39 0.23 0.17 0.15 0.13 0.10 0.07 0.08 0.11 0.18 0.22 0.19 0.13
0.00 0.00 0.00 0.00 0.00 0.00 0.00 0.00 0.00 0.00 0.00 0.00 0.00 0.00 0.00 0.00 0.00 0.00 0.00 0.00 0.00 0.01 0.02 0.03 0.08 0.17 0.27 0.34 0.39 0.43 0.43 0.40 0.27 0.18 0.14 0.15 0.17 0.19 0.23 0.29 0.33 0.28 0.19 0.12
0.00 0.00 0.00 0.00 0.00 0.00 0.00 0.00 0.00 0.00 0.00 0.00 0.00 0.00 0.00 0.00 0.00 0.00 0.01 0.01 0.01 0.01 0.02 0.03 0.07 0.14 0.24 0.31 0.33 0.32 0.34 0.31 0.26 0.17 0.13 0.17 0.23 0.26 0.27 0.21 0.18 0.13 0.07 0.05
0.00 0.00 0.00 0.00 0.00 0.00 0.00 0.00 0.00 0.00 0.00 0.00 0.00 0.00 0.00 0.00 0.00 0.00 0.01 0.02 0.02 0.01 0.02 0.03 0.06 0.12 0.22 0.27 0.27 0.28 0.26 0.22 0.17 0.14 0.12 0.14 0.12 0.09 0.05 0.04 0.02 0.02 0.01 0.00
0.00 0.00 0.00 0.00 0.00 0.00 0.00 0.00 0.00 0.00 0.00 0.00 0.00 0.00 0.00 0.00 0.00 0.01 0.01 0.02 0.02 0.02 0.02 0.03 0.06 0.11 0.15 0.18 0.20 0.21 0.17 0.14 0.10 0.08 0.05 0.03 0.02 0.01 0.00 0.00 0.00 0.00 0.00 0.00
0.00 0.00 0.00 0.00 0.00 0.00 0.00 0.00 0.00 0.00 0.00 0.00 0.00 0.00 0.00 0.00 0.00 0.00 0.01 0.01 0.02 0.02 0.02 0.04 0.07 0.09 0.11 0.12 0.12 0.11 0.09 0.07 0.05 0.03 0.01 0.01 0.00 0.00 0.00 0.00 0.00 0.00 0.00 0.00
0.00 0.00 0.00 0.00 0.00 0.00 0.00 0.00 0.00 0.00 0.00 0.00 0.00 0.00 0.00 0.00 0.00 0.02 0.03 0.02 0.02 0.02 0.03 0.05 0.07 0.07 0.08 0.08 0.07 0.05 0.04 0.03 0.02 0.01 0.01 0.00 0.00 0.00 0.00 0.00 0.00 0.00 0.00 0.00
0.00 0.00 0.00 0.00 0.00 0.00 0.00 0.00 0.00 0.00 0.00 0.00 0.00 0.00 0.01 0.00 0.01 0.04 0.05 0.03 0.02 0.03 0.05 0.07 0.07 0.07 0.07 0.05 0.04 0.03 0.03 0.02 0.01 0.01 0.00 0.00 0.00 0.00 0.00 0.00 0.00 0.00 0.00 0.00
0.00 0.00 0.00 0.00 0.00 0.00 0.00 0.00 0.00 0.00 0.00 0.00 0.00 0.00 0.00 0.00 0.01 0.02 0.04 0.03 0.03 0.05 0.08 0.08 0.07 0.06 0.05 0.04 0.04 0.04 0.03 0.02 0.01 0.00 0.00 0.00 0.00 0.00 0.00 0.00 0.00 0.01 0.01 0.01
0.00 0.00 0.00 0.00 0.00 0.00 0.00 0.00 0.00 0.00 0.00 0.00 0.00 0.00 0.00 0.00 0.01 0.02 0.03 0.04 0.05 0.08 0.10 0.09 0.07 0.06 0.06 0.05 0.05 0.04 0.03 0.02 0.01 0.01 0.01 0.01 0.00 0.00 0.00 0.00 0.01 0.01 0.01 0.02
0.00 0.00 0.00 0.00 0.00 0.00 0.00 0.00 0.00 0.00 0.00 0.00 0.00 0.00 0.00 0.00 0.03 0.06 0.08 0.08 0.08 0.09 0.09 0.07 0.06 0.05 0.05 0.05 0.05 0.05 0.04 0.03 0.03 0.02 0.01 0.00 0.00 0.01 0.01 0.01 0.01 0.02 0.02 0.03
0.00 0.00 0.00 0.00 0.00 0.00 0.00 0.00 0.00 0.00 0.00 0.00 0.00 0.01 0.01 0.01 0.06 0.13 0.15 0.11 0.08 0.07 0.06 0.05 0.05 0.05 0.06 0.07 0.06 0.06 0.05 0.04 0.02 0.01 0.00 0.00 0.00 0.01 0.01 0.02 0.02 0.02 0.03 0.03
0.00 0.00 0.00 0.00 0.00 0.00 0.00 0.00 0.01 0.01 0.01 0.01 0.01 0.03 0.04 0.11 0.18 0.18 0.16 0.12 0.09 0.07 0.07 0.07 0.08 0.09 0.09 0.09 0.08 0.06 0.04 0.02 0.01 0.00 0.00 0.00 0.01 0.01 0.02 0.02 0.03 0.03 0.03 0.03
0.00 0.00 0.00 0.00 0.00 0.00 0.01 0.01 0.01 0.02 0.03 0.02 0.02 0.06 0.11 0.21 0.29 0.26 0.20 0.15 0.13 0.12 0.13 0.16 0.17 0.15 0.12 0.10 0.07 0.05 0.03 0.02 0.01 0.00 0.01 0.01 0.01 0.01 0.02 0.03 0.03 0.02 0.02 0.01
0.00 0.00 0.00 0.00 0.00 0.00 0.00 0.01 0.01 0.01 0.02 0.03 0.04 0.09 0.14 0.20 0.21 0.21 0.18 0.17 0.20 0.24 0.27 0.27 0.22 0.16 0.11 0.09 0.08 0.05 0.04 0.02 0.01 0.01 0.01 0.01 0.01 0.01 0.02 0.02 0.01 0.01 0.01 0.01
0.00 0.00 0.00 0.00 0.00 0.00 0.00 0.00 0.00 0.01 0.01 0.01 0.04 0.09 0.09 0.12 0.13 0.14 0.14 0.16 0.22 0.28 0.27 0.21 0.16 0.12 0.11 0.11 0.09 0.07 0.04 0.02 0.01 0.01 0.01 0.01 0.00 0.01 0.01 0.00 0.00 0.01 0.01 0.01
0.00 0.01 0.02 0.01 0.01 0.01 0.00 0.00 0.00 0.01 0.02 0.01 0.01 0.02 0.03 0.04 0.07 0.09 0.10 0.14 0.17 0.19 0.16 0.14 0.12 0.13 0.14 0.14 0.11 0.07 0.04 0.02 0.01 0.01 0.00 0.00 0.00 0.00 0.00 0.00 0.01 0.01 0.01 0.01
0.00 0.02 0.07 0.06 0.06 0.03 0.01 0.00 0.00 0.01 0.01 0.01 0.02 0.02 0.02 0.03 0.06 0.06 0.07 0.10 0.13 0.15 0.14 0.14 0.16 0.19 0.19 0.16 0.10 0.05 0.03 0.01 0.00 0.00 0.00 0.00 0.00 0.00 0.00 0.01 0.01 0.01 0.01 0.01
0.00 0.01 0.08 0.12 0.14 0.11 0.04 0.02 0.01 0.01 0.03 0.02 0.02 0.02 0.02 0.04 0.07 0.06 0.06 0.07 0.08 0.09 0.13 0.19 0.24 0.25 0.21 0.14 0.08 0.05 0.02 0.01 0.00 0.00 0.00 0.00 0.00 0.00 0.01 0.01 0.01 0.01 0.01 0.01
0.02 0.04 0.11 0.17 0.21 0.18 0.09 0.06 0.04 0.06 0.06 0.07 0.05 0.05 0.08 0.10 0.11 0.10 0.06 0.06 0.07 0.12 0.20 0.26 0.27 0.24 0.17 0.09 0.04 0.02 0.01 0.01 0.00 0.00 0.00 0.00 0.00 0.00 0.00 0.00 0.01 0.01 0.01 0.00
0.13 0.13 0.14 0.17 0.23 0.26 0.10 0.08 0.10 0.11 0.10 0.11 0.10 0.09 0.10 0.12 0.11 0.08 0.07 0.08 0.12 0.19 0.26 0.27 0.25 0.18 0.11 0.05 0.02 0.01 0.01 0.00 0.00 0.00 0.00 0.00 0.00 0.00 0.00 0.00 0.00 0.00 0.00 0.00
0.35 0.25 0.20 0.21 0.23 0.16 0.09 0.07 0.07 0.09 0.12 0.12 0.12 0.11 0.13 0.17 0.18 0.16 0.16 0.19 0.23 0.28 0.28 0.24 0.18 0.12 0.06 0.02 0.01 0.01 0.01 0.00 0.00 0.00 0.00 0.00 0.00 0.00 0.00 0.00 0.00 0.00 0.00 0.00
0.42 0.36 0.29 0.25 0.22 0.17 0.12 0.09 0.07 0.08 0.11 0.14 0.16 0.18 0.22 0.27 0.27 0.25 0.24 0.25 0.26 0.23 0.17 0.11 0.06 0.03 0.02 0.01 0.00 0.00 0.00 0.00 0.00 0.00 0.00 0.00 0.00 0.00 0.00 0.00 0.00 0.00 0.00 0.00
0.27 0.45 0.49 0.43 0.37 0.29 0.17 0.12 0.13 0.15 0.18 0.25 0.29 0.28 0.29 0.26 0.23 0.21 0.21 0.18 0.14 0.08 0.04 0.02 0.02 0.01 0.00 0.00 0.00 0.00 0.00 0.00 0.00 0.00 0.00 0.00 0.00 0.00 0.00 0.00 0.00 0.00 0.01 0.01
0.10 0.30 0.62 0.73 0.51 0.41 0.32 0.29 0.32 0.32 0.31 0.31 0.28 0.23 0.18 0.13 0.10 0.09 0.08 0.07 0.04 0.02 0.01 0.01 0.01 0.00 0.00 0.00 0.00 0.00 0.00 0.00 0.00 0.00 0.00 0.00 0.00 0.00 0.00 0.00 0.00 0.00 0.00 0.00

GEFSCGP_prec_meanprecacc_030.txt.gz
Total_Precipitation_Accumulation
0.00 0.00 0.00 0.00 0.00 0.00 0.00 0.00 0.00 0.00 0.00 0.00 0.00 0.00 0.00 0.00 0.00 0.00 0.00 0.00 0.00 0.01 0.02 0.05 0.14 0.32 0.44 0.78 0.96 0.67 0.37 0.24 0.14 0.11 0.11 0.09 0.05 0.04 0.05 0.04 0.04 0.07 0.10 0.12
0.00 0.00 0.00 0.00 0.00 0.00 0.00 0.00 0.00 0.00 0.00 0.00 0.00 0.00 0.00 0.00 0.00 0.00 0.00 0.00 0.00 0.01 0.02 0.04 0.11 0.25 0.37 0.50 0.55 0.54 0.49 0.43 0.26 0.19 0.18 0.18 0.13 0.11 0.11 0.13 0.19 0.22 0.19 0.13
0.00 0.00 0.00 0.00 0.00 0.00 0.00 0.00 0.00 0.00 0.00 0.00 0.00 0.00 0.00 0.00 0.00 0.00 0.00 0.00 0.00 0.01 0.02 0.04 0.11 0.23 0.33 0.39 0.46 0.50 0.51 0.49 0.35 0.25 0.22 0.23 0.23 0.23 0.27 0.32 0.34 0.29 0.20 0.12
0.00 0.00 0.00 0.00 0.00 0.00 0.00 0.00 0.00 0.00 0.00 0.00 0.00 0.00 0.00 0.00 0.00 0.00 0.01 0.01 0.01 0.01 0.02 0.03 0.08 0.16 0.27 0.38 0.41 0.43 0.48 0.49 0.44 0.34 0.26 0.28 0.32 0.32 0.32 0.24 0.20 0.15 0.08 0.05
0.00 0.00 0.00 0.00 0.00 0.00 0.00 0.00 0.00 0.00 0.00 0.00 0.00 0.00 0.00 0.00 0.00 0.00 0.01 0.02 0.02 0.01 0.02 0.03 0.06 0.13 0.26 0.34 0.36 0.41 0.45 0.44 0.39 0.33 0.28 0.26 0.22 0.16 0.11 0.08 0.05 0.03 0.01 0.01
0.00 0.00 0.00 0.00 0.00 0.00 0.00 0.00 0.00 0.00 0.00 0.00 0.00 0.00 0.00 0.00 0.00 0.01 0.01 0.02 0.02 0.02 0.02 0.04 0.06 0.12 0.19 0.23 0.28 0.33 0.34 0.33 0.29 0.25 0.22 0.17 0.14 0.11 0.08 0.05 0.03 0.02 0.01 0.00
0.00 0.00 0.00 0.00 0.00 0.00 0.00 0.00 0.00 0.00 0.00 0.00 0.00 0.00 0.00 0.00 0.00 0.00 0.01 0.01 0.02 0.02 0.02 0.04 0.07 0.10 0.13 0.15 0.17 0.19 0.20 0.20 0.18 0.14 0.11 0.10 0.09 0.07 0.04 0.03 0.02 0.01 0.00 0.00
0.00 0.00 0.00 0.00 0.00 0.00 0.00 0.00 0.00 0.00 0.00 0.00 0.00 0.00 0.00 0.00 0.00 0.02 0.03 0.02 0.02 0.02 0.03 0.05 0.07 0.08 0.10 0.09 0.09 0.09 0.10 0.10 0.09 0.07 0.07 0.06 0.04 0.03 0.02 0.02 0.01 0.01 0.00 0.00
0.00 0.00 0.00 0.00 0.00 0.00 0.00 0.00 0.00 0.00 0.00 0.00 0.00 0.00 0.01 0.00 0.01 0.04 0.05 0.03 0.02 0.03 0.05 0.07 0.08 0.08 0.07 0.05 0.05 0.06 0.07 0.07 0.06 0.06 0.05 0.03 0.02 0.02 0.02 0.02 0.01 0.01 0.00 0.00
0.00 0.00 0.00 0.00 0.00 0.00 0.00 0.00 0.00 0.00 0.00 0.00 0.00 0.00 0.00 0.00 0.01 0.02 0.04 0.03 0.03 0.06 0.09 0.10 0.07 0.06 0.05 0.04 0.05 0.07 0.06 0.06 0.05 0.05 0.04 0.03 0.02 0.02 0.01 0.01 0.01 0.01 0.01 0.01
0.00 0.00 0.00 0.00 0.00 0.00 0.00 0.00 0.00 0.00 0.00 0.00 0.00 0.00 0.00 0.00 0.01 0.02 0.04 0.04 0.08 0.11 0.13 0.13 0.08 0.06 0.06 0.05 0.06 0.07 0.08 0.08 0.07 0.06 0.04 0.03 0.02 0.01 0.01 0.01 0.01 0.01 0.01 0.02
0.00 0.00 0.00 0.00 0.00 0.00 0.00 0.00 0.00 0.00 0.00 0.00 0.00 0.00 0.00 0.00 0.03 0.07 0.08 0.08 0.11 0.14 0.13 0.10 0.07 0.06 0.06 0.06 0.07 0.08 0.10 0.10 0.09 0.06 0.04 0.02 0.02 0.01 0.01 0.01 0.01 0.02 0.02 0.03
0.00 0.00 0.00 0.00 0.00 0.00 0.00 0.00 0.00 0.00 0.00 0.00 0.00 0.01 0.01 0.01 0.06 0.13 0.16 0.13 0.15 0.19 0.14 0.09 0.06 0.06 0.07 0.08 0.09 0.10 0.12 0.11 0.08 0.05 0.02 0.01 0.01 0.01 0.01 0.02 0.02 0.02 0.03 0.04
0.00 0.00 0.00 0.00 0.00 0.00 0.00 0.00 0.01 0.01 0.01 0.01 0.01 0.03 0.04 0.11 0.19 0.20 0.21 0.22 0.25 0.23 0.15 0.10 0.10 0.10 0.11 0.11 0.12 0.11 0.10 0.08 0.05 0.03 0.02 0.02 0.02 0.02 0.02 0.03 0.03 0.03 0.04 0.04
0.00 0.00 0.00 0.00 0.00 0.00 0.01 0.01 0.01 0.02 0.03 0.02 0.02 0.06 0.11 0.22 0.30 0.28 0.25 0.22 0.23 0.21 0.19 0.20 0.20 0.18 0.15 0.12 0.11 0.10 0.10 0.08 0.06 0.04 0.03 0.03 0.02 0.02 0.03 0.04 0.04 0.03 0.03 0.03
0.00 0.00 0.00 0.00 0.00 0.00 0.00 0.01 0.01 0.01 0.02 0.03 0.04 0.09 0.14 0.21 0.22 0.23 0.21 0.20 0.25 0.32 0.35 0.34 0.26 0.20 0.14 0.13 0.13 0.13 0.12 0.09 0.07 0.05 0.04 0.03 0.02 0.02 0.03 0.03 0.03 0.03 0.04 0.03
0.00 0.00 0.00 0.00 0.00 0.00 0.00 0.00 0.00 0.01 0.01 0.01 0.04 0.09 0.09 0.12 0.13 0.15 0.15 0.17 0.27 0.36 0.36 0.29 0.21 0.16 0.16 0.18 0.19 0.18 0.16 0.13 0.11 0.08 0.05 0.04 0.03 0.03 0.03 0.02 0.02 0.03 0.02 0.02
0.00 0.01 0.02 0.01 0.01 0.01 0.00 0.00 0.00 0.01 0.02 0.01 0.01 0.02 0.03 0.04 0.07 0.09 0.11 0.16 0.21 0.25 0.23 0.20 0.17 0.19 0.22 0.25 0.24 0.22 0.18 0.14 0.10 0.09 0.06 0.04 0.03 0.03 0.02 0.02 0.02 0.02 0.02 0.02
0.00 0.02 0.07 0.06 0.06 0.03 0.01 0.00 0.00 0.01 0.01 0.01 0.02 0.02 0.02 0.03 0.07 0.08 0.08 0.10 0.15 0.18 0.18 0.18 0.22 0.28 0.32 0.30 0.26 0.21 0.17 0.12 0.09 0.07 0.05 0.03 0.02 0.02 0.02 0.02 0.02 0.02 0.02 0.02
0.00 0.01 0.08 0.12 0.15 0.11 0.06 0.02 0.01 0.01 0.04 0.03 0.02 0.02 0.03 0.04 0.09 0.10 0.08 0.07 0.08 0.11 0.15 0.24 0.32 0.36 0.35 0.30 0.23 0.18 0.12 0.08 0.06 0.03 0.02 0.01 0.01 0.01 0.01 0.01 0.02 0.02 0.02 0.01
0.04 0.05 0.11 0.18 0.23 0.20 0.11 0.06 0.04 0.07 0.09 0.08 0.06 0.05 0.08 0.12 0.14 0.12 0.07 0.06 0.08 0.13 0.23 0.30 0.34 0.34 0.28 0.20 0.14 0.10 0.07 0.05 0.03 0.02 0.01 0.01 0.01 0.00 0.01 0.01 0.01 0.02 0.01 0.01
0.14 0.16 0.18 0.21 0.28 0.32 0.12 0.08 0.10 0.12 0.10 0.11 0.10 0.10 0.12 0.14 0.13 0.09 0.08 0.09 0.13 0.22 0.30 0.33 0.32 0.28 0.20 0.12 0.08 0.06 0.05 0.03 0.01 0.01 0.01 0.01 0.01 0.00 0.00 0.01 0.01 0.01 0.01 0.01
0.35 0.27 0.26 0.28 0.30 0.21 0.11 0.08 0.07 0.10 0.12 0.12 0.12 0.12 0.15 0.19 0.19 0.17 0.18 0.21 0.26 0.31 0.33 0.30 0.25 0.18 0.11 0.06 0.04 0.03 0.02 0.01 0.01 0.01 0.01 0.01 0.00 0.00 0.00 0.00 0.00 0.01 0.01 0.01
0.46 0.37 0.30 0.27 0.25 0.20 0.14 0.09 0.07 0.08 0.12 0.15 0.17 0.21 0.25 0.30 0.30 0.28 0.27 0.28 0.30 0.28 0.22 0.16 0.10 0.07 0.04 0.02 0.01 0.01 0.00 0.00 0.00 0.01 0.01 0.01 0.01 0.00 0.00 0.00 0.00 0.01 0.01 0.01
0.31 0.46 0.52 0.48 0.41 0.32 0.19 0.14 0.14 0.16 0.19 0.26 0.31 0.32 0.34 0.31 0.27 0.24 0.24 0.22 0.18 0.12 0.08 0.05 0.04 0.03 0.02 0.01 0.00 0.00 0.00 0.00 0.00 0.00 0.00 0.01 0.01 0.01 0.01 0.00 0.00 0.01 0.01 0.01
0.11 0.33 0.67 0.79 0.57 0.46 0.36 0.31 0.34 0.34 0.33 0.33 0.32 0.29 0.24 0.19 0.14 0.13 0.12 0.10 0.08 0.06 0.04 0.04 0.03 0.01 0.01 0.00 0.00 0.00 0.00 0.00 0.00 0.01 0.01 0.01 0.00 0.00 0.00 0.01 0.01 0.01 0.00 0.00

GEFSCGP_prec_meanprecacc_036.txt.gz
Total_Precipitation_Accumulation
0.00 0.00 0.00 0.00 0.00 0.00 0.00 0.00 0.00 0.00 0.00 0.00 0.00 0.00 0.00 0.00 0.00 0.00 0.00 0.00 0.00 0.01 0.02 0.06 0.16 0.36 0.52 0.89 1.08 0.78 0.46 0.28 0.17 0.15 0.14 0.12 0.11 0.11 0.10 0.09 0.08 0.11 0.14 0.14
0.00 0.00 0.00 0.00 0.00 0.00 0.00 0.00 0.00 0.00 0.00 0.00 0.00 0.00 0.00 0.00 0.00 0.00 0.00 0.00 0.00 0.01 0.02 0.05 0.12 0.27 0.43 0.58 0.62 0.60 0.54 0.49 0.33 0.26 0.26 0.26 0.24 0.21 0.20 0.22 0.28 0.30 0.25 0.18
0.00 0.00 0.00 0.00 0.00 0.00 0.00 0.00 0.00 0.00 0.00 0.00 0.00 0.00 0.00 0.00 0.00 0.00 0.00 0.00 0.00 0.01 0.02 0.04 0.11 0.24 0.37 0.44 0.51 0.57 0.59 0.60 0.47 0.39 0.38 0.38 0.38 0.37 0.38 0.42 0.45 0.39 0.29 0.19
0.00 0.00 0.00 0.00 0.00 0.00 0.00 0.00 0.00 0.00 0.00 0.00 0.00 0.00 0.00 0.00 0.00 0.00 0.01 0.01 0.01 0.01 0.02 0.03 0.08 0.16 0.30 0.42 0.49 0.52 0.60 0.65 0.64 0.60 0.53 0.51 0.50 0.48 0.47 0.39 0.35 0.27 0.19 0.13
0.00 0.00 0.00 0.00 0.00 0.00 0.00 0.00 0.00 0.00 0.00 0.00 0.00 0.00 0.00 0.00 0.00 0.00 0.01 0.02 0.02 0.01 0.02 0.04 0.07 0.14 0.29 0.41 0.47 0.57 0.63 0.65 0.67 0.65 0.62 0.58 0.46 0.36 0.30 0.24 0.19 0.16 0.13 0.10
0.00 0.00 0.00 0.00 0.00 0.00 0.00 0.00 0.00 0.00 0.00 0.00 0.00 0.00 0.00 0.00 0.00 0.01 0.01 0.02 0.02 0.02 0.02 0.04 0.07 0.15 0.25 0.34 0.44 0.53 0.58 0.59 0.59 0.59 0.54 0.41 0.35 0.32 0.28 0.23 0.18 0.14 0.10 0.07
0.00 0.00 0.00 0.00 0.00 0.00 0.00 0.00 0.00 0.00 0.00 0.00 0.00 0.00 0.00 0.00 0.00 0.00 0.01 0.01 0.02 0.02 0.03 0.05 0.10 0.14 0.20 0.27 0.37 0.44 0.46 0.44 0.41 0.34 0.28 0.26 0.26 0.24 0.19 0.15 0.11 0.08 0.06 0.04
0.00 0.00 0.00 0.00 0.00 0.00 0.00 0.00 0.00 0.00 0.00 0.00 0.00 0.00 0.00 0.00 0.01 0.02 0.03 0.02 0.02 0.03 0.04 0.07 0.11 0.15 0.22 0.27 0.30 0.31 0.28 0.23 0.18 0.15 0.16 0.16 0.15 0.13 0.11 0.09 0.06 0.04 0.02 0.02
0.00 0.00 0.00 0.00 0.00 0.00 0.00 0.00 0.00 0.00 0.00 0.00 0.00 0.00 0.01 0.00 0.01 0.04 0.05 0.04 0.03 0.04 0.07 0.11 0.15 0.19 0.23 0.21 0.20 0.17 0.15 0.12 0.10 0.09 0.09 0.07 0.07 0.07 0.07 0.06 0.04 0.03 0.02 0.01
0.00 0.00 0.00 0.00 0.00 0.00 0.00 0.00 0.00 0.00 0.00 0.00 0.00 0.00 0.01 0.01 0.01 0.03 0.04 0.04 0.05 0.09 0.14 0.17 0.18 0.18 0.16 0.14 0.13 0.12 0.11 0.09 0.08 0.07 0.05 0.05 0.05 0.04 0.05 0.04 0.03 0.03 0.02 0.02
0.00 0.00 0.00 0.00 0.00 0.00 0.00 0.00 0.00 0.00 0.00 0.00 0.00 0.01 0.01 0.01 0.01 0.03 0.04 0.06 0.11 0.18 0.20 0.21 0.18 0.15 0.13 0.12 0.12 0.10 0.10 0.09 0.08 0.07 0.06 0.05 0.05 0.04 0.04 0.03 0.03 0.02 0.02 0.02
0.00 0.00 0.00 0.00 0.00 0.00 0.00 0.00 0.00 0.00 0.00 0.00 0.00 0.01 0.01 0.01 0.03 0.07 0.09 0.10 0.16 0.23 0.27 0.26 0.21 0.16 0.14 0.12 0.11 0.11 0.12 0.11 0.10 0.08 0.06 0.05 0.04 0.04 0.03 0.03 0.03 0.03 0.03 0.03
0.00 0.00 0.00 0.00 0.00 0.00 0.00 0.00 0.00 0.00 0.00 0.00 0.00 0.02 0.02 0.02 0.07 0.14 0.17 0.16 0.22 0.35 0.39 0.33 0.24 0.16 0.12 0.11 0.11 0.11 0.13 0.12 0.09 0.06 0.04 0.03 0.02 0.02 0.02 0.03 0.03 0.03 0.03 0.04
0.00 0.00 0.00 0.00 0.00 0.00 0.00 0.01 0.01 0.01 0.01 0.01 0.01 0.04 0.05 0.12 0.20 0.21 0.24 0.26 0.33 0.41 0.35 0.26 0.20 0.16 0.14 0.13 0.13 0.12 0.11 0.09 0.06 0.04 0.03 0.03 0.02 0.03 0.03 0.04 0.04 0.04 0.05 0.05
0.00 0.00 0.00 0.00 0.00 0.00 0.01 0.01 0.02 0.02 0.03 0.03 0.03 0.08 0.13 0.23 0.31 0.30 0.27 0.26 0.30 0.31 0.29 0.29 0.26 0.23 0.18 0.14 0.12 0.11 0.10 0.09 0.07 0.05 0.04 0.04 0.04 0.04 0.05 0.06 0.06 0.06 0.06 0.05
0.00 0.00 0.00 0.00 0.00 0.00 0.01 0.01 0.01 0.02 0.03 0.03 0.05 0.11 0.16 0.22 0.24 0.24 0.23 0.23 0.28 0.39 0.43 0.41 0.32 0.23 0.17 0.15 0.15 0.14 0.13 0.11 0.09 0.08 0.08 0.07 0.06 0.06 0.07 0.07 0.07 0.07 0.07 0.06
0.00 0.00 0.01 0.00 0.00 0.00 0.00 0.00 0.00 0.01 0.01 0.01 0.05 0.10 0.10 0.12 0.14 0.15 0.16 0.19 0.28 0.38 0.39 0.32 0.24 0.18 0.18 0.20 0.21 0.21 0.20 0.18 0.16 0.14 0.12 0.10 0.09 0.09 0.09 0.07 0.06 0.05 0.04 0.03
0.00 0.02 0.03 0.01 0.01 0.01 0.00 0.00 0.01 0.01 0.02 0.02 0.02 0.02 0.03 0.04 0.07 0.09 0.11 0.16 0.21 0.25 0.24 0.21 0.19 0.20 0.24 0.28 0.28 0.27 0.24 0.21 0.18 0.17 0.15 0.13 0.11 0.10 0.08 0.06 0.05 0.03 0.02 0.02
0.00 0.03 0.07 0.06 0.06 0.03 0.01 0.01 0.01 0.01 0.02 0.02 0.02 0.02 0.02 0.03 0.07 0.09 0.08 0.11 0.15 0.18 0.19 0.19 0.23 0.29 0.34 0.34 0.31 0.27 0.25 0.22 0.20 0.17 0.13 0.10 0.07 0.06 0.05 0.04 0.03 0.02 0.02 0.02
0.01 0.03 0.10 0.13 0.15 0.12 0.07 0.02 0.01 0.02 0.06 0.03 0.02 0.02 0.03 0.04 0.09 0.10 0.08 0.08 0.09 0.11 0.16 0.24 0.33 0.38 0.39 0.35 0.28 0.24 0.20 0.16 0.13 0.09 0.06 0.04 0.03 0.02 0.02 0.02 0.02 0.02 0.02 0.01
0.07 0.08 0.15 0.22 0.26 0.23 0.12 0.06 0.04 0.09 0.11 0.09 0.06 0.06 0.08 0.12 0.15 0.12 0.07 0.06 0.08 0.14 0.24 0.31 0.35 0.36 0.31 0.23 0.17 0.14 0.11 0.08 0.05 0.03 0.02 0.01 0.01 0.01 0.01 0.01 0.01 0.02 0.01 0.01
0.19 0.20 0.22 0.25 0.32 0.36 0.14 0.09 0.12 0.14 0.11 0.12 0.10 0.10 0.12 0.15 0.13 0.10 0.08 0.10 0.14 0.23 0.31 0.34 0.34 0.29 0.21 0.14 0.09 0.08 0.06 0.03 0.02 0.01 0.01 0.01 0.01 0.00 0.00 0.01 0.01 0.01 0.01 0.01
0.40 0.32 0.31 0.34 0.35 0.24 0.11 0.08 0.08 0.10 0.12 0.12 0.12 0.13 0.16 0.19 0.20 0.18 0.19 0.22 0.27 0.33 0.35 0.31 0.25 0.19 0.12 0.07 0.05 0.04 0.02 0.01 0.01 0.01 0.01 0.01 0.01 0.00 0.00 0.00 0.00 0.01 0.01 0.01
0.49 0.39 0.32 0.30 0.29 0.22 0.15 0.10 0.07 0.08 0.12 0.15 0.18 0.21 0.26 0.31 0.31 0.30 0.29 0.31 0.31 0.30 0.24 0.17 0.11 0.07 0.04 0.03 0.02 0.01 0.01 0.00 0.01 0.01 0.01 0.01 0.01 0.01 0.00 0.00 0.00 0.01 0.01 0.01
0.33 0.48 0.54 0.51 0.44 0.33 0.20 0.14 0.15 0.16 0.19 0.26 0.32 0.33 0.35 0.34 0.31 0.28 0.27 0.24 0.20 0.14 0.09 0.06 0.05 0.03 0.02 0.01 0.01 0.00 0.00 0.01 0.01 0.01 0.01 0.01 0.01 0.01 0.01 0.00 0.00 0.01 0.01 0.01
0.12 0.35 0.69 0.81 0.58 0.46 0.36 0.32 0.34 0.34 0.33 0.34 0.32 0.30 0.28 0.24 0.19 0.16 0.14 0.12 0.09 0.07 0.05 0.04 0.03 0.01 0.01 0.00 0.00 0.00 0.00 0.00 0.01 0.01 0.01 0.01 0.00 0.00 0.00 0.01 0.01 0.01 0.00 0.00

GEFSCGP_prec_meanprecacc_042.txt.gz
Total_Precipitation_Accumulation
0.00 0.00 0.00 0.00 0.00 0.00 0.00 0.00 0.00 0.00 0.00 0.00 0.00 0.00 0.00 0.00 0.00 0.00 0.00 0.00 0.00 0.01 0.02 0.06 0.16 0.36 0.52 0.89 1.09 0.79 0.48 0.31 0.24 0.28 0.33 0.39 0.41 0.41 0.38 0.37 0.37 0.38 0.37 0.34
0.00 0.00 0.00 0.00 0.00 0.00 0.00 0.00 0.00 0.00 0.00 0.00 0.00 0.00 0.00 0.00 0.00 0.00 0.00 0.00 0.00 0.01 0.02 0.05 0.12 0.27 0.43 0.58 0.62 0.61 0.55 0.53 0.43 0.45 0.53 0.62 0.68 0.66 0.68 0.75 0.82 0.79 0.64 0.49
0.00 0.00 0.00 0.00 0.00 0.00 0.00 0.00 0.00 0.00 0.00 0.00 0.00 0.00 0.00 0.00 0.00 0.00 0.00 0.00 0.00 0.01 0.02 0.04 0.11 0.24 0.37 0.45 0.51 0.58 0.61 0.66 0.65 0.71 0.77 0.86 0.99 1.07 1.11 1.13 1.09 0.96 0.74 0.55
0.00 0.00 0.00 0.00 0.00 0.00 0.00 0.00 0.00 0.00 0.00 0.00 0.00 0.00 0.00 0.00 0.00 0.00 0.01 0.01 0.01 0.01 0.02 0.03 0.08 0.16 0.30 0.42 0.50 0.54 0.64 0.77 0.89 0.97 1.00 1.15 1.33 1.35 1.26 1.02 0.85 0.72 0.59 0.49
0.00 0.00 0.00 0.00 0.00 0.00 0.00 0.00 0.00 0.00 0.00 0.00 0.00 0.00 0.00 0.00 0.00 0.00 0.01 0.02 0.02 0.02 0.02 0.04 0.07 0.14 0.29 0.42 0.49 0.61 0.72 0.87 1.03 1.19 1.30 1.45 1.45 1.22 0.97 0.76 0.63 0.55 0.46 0.40
0.00 0.00 0.00 0.00 0.00 0.00 0.00 0.00 0.00 0.00 0.00 0.00 0.00 0.00 0.00 0.00 0.00 0.01 0.02 0.03 0.02 0.02 0.03 0.04 0.08 0.16 0.26 0.36 0.49 0.62 0.77 0.92 1.09 1.28 1.41 1.39 1.27 1.08 0.85 0.67 0.57 0.51 0.42 0.35
0.00 0.00 0.00 0.00 0.00 0.00 0.00 0.00 0.00 0.00 0.00 0.00 0.00 0.00 0.00 0.00 0.01 0.01 0.01 0.02 0.03 0.03 0.04 0.06 0.11 0.15 0.22 0.32 0.45 0.58 0.67 0.84 1.00 1.14 1.24 1.19 1.03 0.82 0.60 0.48 0.41 0.36 0.30 0.25
0.00 0.00 0.00 0.00 0.00 0.00 0.00 0.00 0.00 0.00 0.00 0.00 0.00 0.00 0.01 0.01 0.01 0.02 0.03 0.03 0.03 0.04 0.05 0.08 0.13 0.18 0.26 0.34 0.43 0.51 0.59 0.71 0.83 0.86 0.83 0.69 0.53 0.44 0.38 0.34 0.29 0.23 0.17 0.12
0.00 0.00 0.00 0.00 0.00 0.00 0.00 0.00 0.00 0.00 0.00 0.00 0.00 0.00 0.01 0.01 0.02 0.05 0.06 0.05 0.04 0.06 0.09 0.14 0.18 0.23 0.28 0.32 0.37 0.39 0.41 0.45 0.45 0.39 0.34 0.28 0.22 0.20 0.20 0.17 0.13 0.09 0.07 0.06
0.00 0.00 0.00 0.00 0.00 0.00 0.00 0.00 0.00 0.00 0.00 0.00 0.00 0.00 0.01 0.01 0.02 0.04 0.06 0.05 0.07 0.11 0.16 0.20 0.21 0.23 0.21 0.21 0.22 0.22 0.20 0.20 0.18 0.15 0.13 0.12 0.11 0.09 0.08 0.07 0.07 0.06 0.05 0.04
0.00 0.00 0.00 0.00 0.00 0.00 0.00 0.00 0.00 0.00 0.00 0.00 0.00 0.01 0.01 0.01 0.02 0.04 0.06 0.07 0.12 0.19 0.23 0.24 0.21 0.18 0.16 0.15 0.14 0.12 0.12 0.11 0.11 0.10 0.08 0.08 0.07 0.05 0.05 0.04 0.04 0.04 0.03 0.03
0.00 0.00 0.00 0.00 0.00 0.00 0.00 0.00 0.00 0.00 0.00 0.00 0.00 0.01 0.01 0.01 0.04 0.08 0.11 0.12 0.17 0.25 0.29 0.28 0.23 0.18 0.16 0.13 0.12 0.11 0.12 0.12 0.10 0.08 0.07 0.05 0.04 0.04 0.04 0.03 0.03 0.03 0.04 0.04
0.00 0.00 0.00 0.00 0.00 0.00 0.00 0.00 0.00 0.00 0.00 0.00 0.00 0.02 0.02 0.03 0.08 0.16 0.20 0.18 0.24 0.37 0.41 0.35 0.25 0.17 0.13 0.12 0.11 0.11 0.13 0.12 0.09 0.06 0.04 0.03 0.03 0.03 0.03 0.03 0.04 0.04 0.04 0.05
0.00 0.00 0.00 0.00 0.00 0.00 0.00 0.01 0.01 0.01 0.01 0.01 0.02 0.05 0.06 0.14 0.22 0.24 0.27 0.29 0.35 0.43 0.36 0.27 0.20 0.17 0.15 0.13 0.13 0.12 0.11 0.09 0.07 0.04 0.03 0.03 0.03 0.04 0.04 0.05 0.05 0.05 0.06 0.06
0.00 0.00 0.00 0.00 0.00 0.00 0.01 0.01 0.02 0.02 0.03 0.03 0.03 0.09 0.14 0.25 0.35 0.34 0.30 0.28 0.31 0.31 0.30 0.29 0.27 0.23 0.18 0.14 0.12 0.11 0.10 0.09 0.07 0.06 0.05 0.06 0.05 0.06 0.07 0.08 0.09 0.09 0.09 0.08
0.00 0.00 0.00 0.00 0.00 0.00 0.01 0.01 0.01 0.02 0.03 0.03 0.06 0.12 0.19 0.25 0.27 0.27 0.25 0.24 0.29 0.39 0.44 0.42 0.32 0.24 0.17 0.15 0.15 0.14 0.13 0.11 0.09 0.09 0.10 0.10 0.10 0.11 0.12 0.12 0.12 0.11 0.10 0.08
0.00 0.00 0.01 0.00 0.00 0.00 0.00 0.01 0.01 0.02 0.03 0.03 0.06 0.12 0.13 0.15 0.16 0.17 0.18 0.21 0.29 0.39 0.39 0.33 0.24 0.19 0.18 0.20 0.21 0.21 0.21 0.19 0.18 0.18 0.17 0.15 0.15 0.15 0.14 0.12 0.10 0.08 0.06 0.04
0.00 0.02 0.03 0.02 0.02 0.02 0.01 0.01 0.01 0.02 0.03 0.03 0.03 0.03 0.04 0.06 0.09 0.11 0.12 0.17 0.22 0.25 0.24 0.21 0.19 0.21 0.25 0.28 0.29 0.28 0.26 0.23 0.21 0.21 0.20 0.18 0.16 0.15 0.12 0.09 0.07 0.05 0.03 0.03
0.00 0.03 0.07 0.06 0.06 0.03 0.02 0.01 0.01 0.02 0.03 0.03 0.03 0.03 0.02 0.03 0.07 0.09 0.08 0.11 0.15 0.18 0.19 0.19 0.23 0.30 0.35 0.35 0.32 0.29 0.28 0.25 0.23 0.21 0.17 0.13 0.10 0.07 0.06 0.04 0.03 0.02 0.02 0.02
0.01 0.03 0.10 0.13 0.16 0.13 0.08 0.02 0.01 0.02 0.07 0.04 0.03 0.03 0.03 0.04 0.10 0.11 0.08 0.08 0.09 0.11 0.16 0.25 0.34 0.39 0.40 0.36 0.30 0.27 0.24 0.20 0.16 0.11 0.07 0.05 0.03 0.02 0.02 0.02 0.02 0.02 0.02 0.01
0.08 0.08 0.15 0.22 0.27 0.24 0.12 0.07 0.05 0.10 0.12 0.09 0.06 0.06 0.08 0.12 0.15 0.12 0.07 0.07 0.08 0.14 0.24 0.32 0.36 0.37 0.33 0.25 0.19 0.16 0.13 0.10 0.06 0.04 0.02 0.01 0.01 0.01 0.01 0.01 0.01 0.02 0.01 0.01
0.19 0.21 0.23 0.26 0.32 0.37 0.15 0.09 0.13 0.15 0.12 0.12 0.10 0.10 0.12 0.15 0.13 0.10 0.09 0.10 0.14 0.23 0.32 0.35 0.35 0.30 0.23 0.15 0.10 0.08 0.06 0.03 0.02 0.01 0.01 0.01 0.01 0.00 0.00 0.01 0.01 0.01 0.01 0.01
0.41 0.33 0.32 0.35 0.36 0.25 0.13 0.09 0.08 0.10 0.12 0.12 0.12 0.13 0.16 0.20 0.20 0.19 0.19 0.22 0.28 0.34 0.36 0.32 0.26 0.20 0.12 0.07 0.05 0.04 0.02 0.01 0.01 0.01 0.01 0.01 0.01 0.00 0.00 0.00 0.00 0.01 0.01 0.01
0.49 0.39 0.33 0.31 0.29 0.22 0.15 0.10 0.07 0.08 0.12 0.15 0.18 0.21 0.26 0.31 0.32 0.30 0.30 0.31 0.32 0.30 0.24 0.17 0.11 0.08 0.05 0.03 0.02 0.01 0.01 0.00 0.01 0.01 0.01 0.02 0.01 0.01 0.00 0.00 0.00 0.01 0.01 0.01
0.33 0.49 0.55 0.51 0.44 0.34 0.20 0.14 0.15 0.16 0.19 0.26 0.32 0.33 0.36 0.35 0.32 0.29 0.28 0.25 0.21 0.14 0.09 0.06 0.05 0.03 0.02 0.01 0.01 0.00 0.00 0.01 0.01 0.01 0.01 0.01 0.01 0.01 0.01 0.00 0.00 0.01 0.01 0.01
0.13 0.35 0.69 0.81 0.58 0.46 0.36 0.32 0.34 0.35 0.33 0.34 0.33 0.31 0.29 0.25 0.21 0.18 0.16 0.13 0.09 0.07 0.05 0.04 0.03 0.01 0.01 0.00 0.00 0.00 0.00 0.00 0.01 0.01 0.01 0.01 0.00 0.00 0.00 0.01 0.01 0.01 0.00 0.00

GEFSCGP_prec_meanprecacc_048.txt.gz
Total_Precipitation_Accumulation
0.00 0.00 0.00 0.00 0.00 0.00 0.00 0.00 0.00 0.00 0.00 0.00 0.00 0.00 0.00 0.00 0.00 0.00 0.00 0.00 0.00 0.01 0.02 0.06 0.16 0.36 0.52 0.89 1.09 0.80 0.48 0.33 0.26 0.32 0.40 0.51 0.59 0.66 0.67 0.65 0.67 0.71 0.75 0.74
0.00 0.00 0.00 0.00 0.00 0.00 0.00 0.00 0.00 0.00 0.00 0.00 0.00 0.00 0.00 0.00 0.00 0.00 0.00 0.00 0.00 0.01 0.02 0.05 0.12 0.27 0.43 0.58 0.62 0.62 0.56 0.55 0.46 0.54 0.68 0.87 1.01 1.06 1.09 1.18 1.31 1.38 1.29 1.13
0.00 0.00 0.00 0.00 0.00 0.00 0.00 0.00 0.00 0.00 0.00 0.00 0.00 0.00 0.00 0.00 0.00 0.00 0.00 0.00 0.00 0.01 0.02 0.04 0.11 0.24 0.37 0.45 0.52 0.58 0.63 0.70 0.71 0.84 0.99 1.19 1.38 1.53 1.65 1.72 1.72 1.61 1.41 1.25
0.00 0.00 0.00 0.00 0.00 0.00 0.00 0.00 0.00 0.00 0.00 0.00 0.00 0.00 0.00 0.00 0.00 0.00 0.01 0.01 0.01 0.01 0.02 0.03 0.08 0.16 0.30 0.43 0.50 0.55 0.67 0.82 0.97 1.12 1.25 1.48 1.72 1.83 1.83 1.63 1.47 1.28 1.10 0.95
0.00 0.00 0.00 0.00 0.00 0.00 0.00 0.00 0.00 0.00 0.00 0.00 0.00 0.00 0.00 0.00 0.00 0.01 0.02 0.03 0.02 0.02 0.02 0.04 0.07 0.15 0.29 0.42 0.50 0.62 0.76 0.92 1.13 1.35 1.52 1.71 1.78 1.65 1.44 1.25 1.06 0.97 0.86 0.74
0.00 0.00 0.00 0.00 0.00 0.00 0.00 0.00 0.00 0.00 0.00 0.00 0.00 0.00 0.00 0.00 0.00 0.01 0.02 0.03 0.03 0.03 0.03 0.05 0.09 0.16 0.27 0.37 0.51 0.64 0.80 0.97 1.17 1.41 1.58 1.61 1.57 1.45 1.24 1.02 0.88 0.80 0.68 0.56
0.00 0.00 0.00 0.00 0.00 0.00 0.00 0.00 0.00 0.00 0.00 0.00 0.00 0.00 0.00 0.01 0.01 0.01 0.02 0.03 0.04 0.04 0.05 0.07 0.12 0.16 0.23 0.33 0.46 0.59 0.69 0.89 1.07 1.24 1.41 1.40 1.28 1.09 0.84 0.69 0.61 0.52 0.42 0.35
0.00 0.00 0.00 0.00 0.00 0.00 0.00 0.00 0.00 0.00 0.00 0.00 0.00 0.00 0.01 0.02 0.02 0.04 0.05 0.04 0.05 0.06 0.07 0.10 0.15 0.19 0.28 0.36 0.45 0.53 0.62 0.75 0.88 0.94 0.94 0.80 0.64 0.54 0.46 0.40 0.34 0.26 0.20 0.16
0.00 0.00 0.00 0.00 0.00 0.00 0.00 0.00 0.00 0.00 0.00 0.00 0.00 0.00 0.01 0.02 0.04 0.07 0.07 0.06 0.07 0.09 0.12 0.16 0.20 0.26 0.31 0.34 0.40 0.42 0.43 0.47 0.48 0.44 0.39 0.32 0.26 0.23 0.22 0.19 0.14 0.11 0.09 0.07
0.00 0.00 0.00 0.00 0.00 0.00 0.00 0.00 0.00 0.00 0.00 0.00 0.00 0.00 0.01 0.02 0.03 0.06 0.08 0.08 0.10 0.14 0.19 0.23 0.24 0.25 0.23 0.22 0.24 0.24 0.22 0.21 0.20 0.17 0.14 0.13 0.12 0.10 0.09 0.08 0.08 0.07 0.06 0.05
0.00 0.00 0.00 0.00 0.00 0.00 0.00 0.00 0.00 0.00 0.00 0.00 0.00 0.01 0.01 0.01 0.04 0.06 0.08 0.10 0.15 0.22 0.25 0.26 0.23 0.20 0.17 0.16 0.15 0.13 0.12 0.12 0.11 0.10 0.09 0.08 0.07 0.06 0.05 0.05 0.05 0.04 0.04 0.04
0.00 0.00 0.00 0.00 0.00 0.00 0.00 0.00 0.00 0.00 0.00 0.00 0.00 0.01 0.01 0.02 0.06 0.10 0.13 0.15 0.20 0.28 0.31 0.30 0.24 0.19 0.16 0.14 0.12 0.12 0.12 0.12 0.11 0.09 0.07 0.05 0.04 0.04 0.04 0.04 0.04 0.04 0.04 0.04
0.00 0.00 0.00 0.00 0.00 0.00 0.00 0.00 0.00 0.00 0.00 0.00 0.01 0.03 0.03 0.05 0.11 0.18 0.22 0.22 0.28 0.40 0.43 0.36 0.26 0.17 0.13 0.12 0.11 0.11 0.13 0.12 0.09 0.06 0.04 0.03 0.03 0.03 0.03 0.04 0.04 0.04 0.05 0.06
0.00 0.00 0.00 0.00 0.00 0.00 0.00 0.01 0.01 0.01 0.01 0.01 0.02 0.05 0.08 0.17 0.26 0.27 0.31 0.32 0.38 0.45 0.38 0.28 0.21 0.17 0.15 0.13 0.13 0.12 0.11 0.09 0.07 0.04 0.03 0.03 0.03 0.04 0.05 0.05 0.06 0.06 0.07 0.08
0.00 0.00 0.00 0.00 0.00 0.00 0.01 0.02 0.02 0.02 0.03 0.03 0.03 0.10 0.16 0.29 0.40 0.39 0.36 0.33 0.34 0.34 0.31 0.30 0.27 0.23 0.18 0.14 0.12 0.11 0.11 0.09 0.07 0.06 0.05 0.06 0.06 0.06 0.08 0.09 0.10 0.10 0.10 0.09
0.00 0.01 0.01 0.01 0.01 0.00 0.01 0.01 0.01 0.02 0.04 0.04 0.07 0.14 0.22 0.30 0.33 0.36 0.33 0.29 0.32 0.41 0.45 0.43 0.33 0.24 0.17 0.15 0.15 0.15 0.14 0.11 0.10 0.10 0.11 0.11 0.12 0.12 0.14 0.14 0.13 0.13 0.12 0.10
0.00 0.01 0.01 0.01 0.01 0.01 0.01 0.01 0.01 0.02 0.03 0.05 0.09 0.14 0.17 0.23 0.26 0.27 0.26 0.27 0.34 0.41 0.41 0.34 0.25 0.19 0.19 0.20 0.22 0.22 0.21 0.20 0.19 0.19 0.18 0.17 0.17 0.17 0.17 0.14 0.12 0.10 0.07 0.05
0.00 0.02 0.03 0.02 0.02 0.03 0.02 0.01 0.02 0.03 0.05 0.04 0.05 0.06 0.09 0.14 0.17 0.18 0.19 0.24 0.27 0.29 0.27 0.23 0.20 0.22 0.26 0.29 0.30 0.29 0.26 0.24 0.22 0.23 0.22 0.21 0.18 0.17 0.13 0.10 0.08 0.05 0.04 0.03
0.00 0.03 0.07 0.06 0.07 0.04 0.02 0.01 0.02 0.02 0.04 0.04 0.06 0.07 0.08 0.10 0.12 0.13 0.13 0.15 0.19 0.21 0.21 0.21 0.25 0.31 0.36 0.37 0.34 0.30 0.29 0.27 0.25 0.24 0.19 0.15 0.11 0.08 0.06 0.05 0.03 0.03 0.02 0.02
0.01 0.03 0.11 0.14 0.17 0.14 0.10 0.03 0.02 0.04 0.09 0.05 0.05 0.06 0.06 0.08 0.13 0.12 0.09 0.09 0.10 0.12 0.17 0.26 0.34 0.40 0.41 0.37 0.31 0.28 0.26 0.22 0.18 0.13 0.09 0.06 0.04 0.03 0.02 0.02 0.02 0.02 0.02 0.02
0.08 0.09 0.16 0.24 0.29 0.26 0.13 0.07 0.07 0.14 0.17 0.12 0.09 0.09 0.11 0.14 0.16 0.12 0.07 0.07 0.09 0.15 0.25 0.32 0.37 0.38 0.34 0.27 0.20 0.17 0.14 0.11 0.08 0.05 0.03 0.02 0.01 0.01 0.01 0.01 0.02 0.02 0.02 0.02
0.21 0.23 0.24 0.28 0.35 0.40 0.16 0.11 0.17 0.19 0.14 0.15 0.13 0.12 0.13 0.15 0.13 0.10 0.09 0.11 0.15 0.24 0.33 0.36 0.36 0.31 0.23 0.16 0.12 0.09 0.07 0.04 0.03 0.03 0.02 0.02 0.01 0.01 0.00 0.01 0.02 0.02 0.02 0.02
0.42 0.34 0.34 0.37 0.38 0.27 0.13 0.10 0.10 0.12 0.14 0.14 0.13 0.13 0.16 0.20 0.20 0.19 0.20 0.23 0.28 0.34 0.36 0.32 0.27 0.21 0.13 0.08 0.05 0.05 0.03 0.02 0.02 0.03 0.02 0.02 0.01 0.01 0.01 0.01 0.02 0.02 0.02 0.02
0.50 0.39 0.34 0.33 0.31 0.23 0.15 0.10 0.08 0.09 0.13 0.15 0.18 0.21 0.26 0.32 0.32 0.30 0.30 0.32 0.33 0.31 0.25 0.18 0.12 0.08 0.05 0.03 0.02 0.02 0.01 0.01 0.02 0.03 0.02 0.03 0.02 0.01 0.01 0.01 0.01 0.02 0.02 0.02
0.34 0.50 0.56 0.53 0.46 0.34 0.20 0.14 0.15 0.16 0.20 0.26 0.32 0.34 0.36 0.35 0.33 0.30 0.29 0.26 0.21 0.15 0.09 0.07 0.05 0.03 0.02 0.01 0.01 0.01 0.01 0.02 0.02 0.02 0.02 0.02 0.02 0.02 0.02 0.02 0.01 0.02 0.03 0.01
0.13 0.36 0.71 0.83 0.60 0.47 0.37 0.32 0.34 0.35 0.34 0.34 0.33 0.31 0.30 0.26 0.22 0.20 0.17 0.13 0.10 0.07 0.05 0.05 0.03 0.02 0.01 0.00 0.00 0.00 0.00 0.01 0.01 0.02 0.02 0.01 0.01 0.01 0.01 0.02 0.03 0.01 0.00 0.00

GEFSCGP_prec_meanprecacc_054.txt.gz
Total_Precipitation_Accumulation
0.00 0.00 0.00 0.00 0.00 0.00 0.00 0.00 0.00 0.00 0.00 0.00 0.00 0.00 0.00 0.00 0.00 0.00 0.00 0.00 0.01 0.01 0.02 0.06 0.17 0.36 0.53 0.90 1.10 0.81 0.50 0.35 0.28 0.34 0.42 0.53 0.63 0.71 0.72 0.71 0.72 0.77 0.81 0.82
0.00 0.00 0.00 0.00 0.00 0.00 0.00 0.00 0.00 0.00 0.00 0.00 0.00 0.00 0.00 0.00 0.00 0.00 0.00 0.00 0.00 0.01 0.02 0.05 0.15 0.28 0.43 0.59 0.63 0.63 0.59 0.59 0.51 0.59 0.73 0.93 1.11 1.17 1.20 1.30 1.42 1.50 1.41 1.24
0.00 0.00 0.00 0.00 0.00 0.00 0.00 0.00 0.00 0.00 0.00 0.00 0.00 0.00 0.00 0.00 0.00 0.00 0.00 0.00 0.00 0.01 0.02 0.04 0.15 0.27 0.37 0.45 0.53 0.60 0.67 0.76 0.77 0.91 1.08 1.30 1.51 1.68 1.78 1.84 1.83 1.72 1.52 1.36
0.00 0.00 0.00 0.00 0.00 0.00 0.00 0.00 0.00 0.00 0.00 0.00 0.00 0.00 0.00 0.00 0.00 0.01 0.01 0.01 0.01 0.01 0.02 0.04 0.11 0.21 0.31 0.43 0.52 0.58 0.72 0.88 1.06 1.24 1.39 1.62 1.87 2.00 1.96 1.73 1.56 1.36 1.17 1.02
0.00 0.00 0.00 0.00 0.00 0.00 0.00 0.00 0.00 0.00 0.00 0.00 0.00 0.00 0.00 0.00 0.01 0.01 0.02 0.03 0.02 0.02 0.03 0.04 0.07 0.16 0.30 0.44 0.53 0.66 0.82 0.99 1.24 1.50 1.70 1.88 1.95 1.83 1.60 1.36 1.13 1.02 0.91 0.78
0.00 0.00 0.00 0.00 0.00 0.00 0.00 0.00 0.00 0.00 0.00 0.00 0.00 0.00 0.00 0.01 0.01 0.02 0.03 0.04 0.03 0.03 0.03 0.05 0.09 0.17 0.28 0.39 0.53 0.69 0.86 1.05 1.29 1.55 1.76 1.80 1.74 1.60 1.37 1.11 0.95 0.85 0.72 0.59
0.00 0.00 0.00 0.00 0.00 0.00 0.00 0.00 0.00 0.00 0.00 0.00 0.00 0.00 0.01 0.01 0.02 0.02 0.03 0.04 0.05 0.05 0.05 0.08 0.12 0.17 0.25 0.35 0.49 0.63 0.73 0.94 1.14 1.34 1.55 1.56 1.44 1.23 0.96 0.80 0.70 0.59 0.46 0.37
0.00 0.00 0.00 0.00 0.00 0.00 0.00 0.00 0.00 0.00 0.00 0.00 0.00 0.01 0.04 0.03 0.03 0.05 0.05 0.05 0.06 0.07 0.08 0.11 0.16 0.21 0.30 0.38 0.48 0.56 0.66 0.80 0.95 1.04 1.06 0.94 0.78 0.66 0.58 0.51 0.40 0.30 0.22 0.16
0.00 0.00 0.00 0.00 0.00 0.00 0.00 0.00 0.00 0.00 0.00 0.00 0.00 0.02 0.05 0.05 0.05 0.07 0.08 0.07 0.08 0.10 0.13 0.18 0.23 0.28 0.34 0.37 0.44 0.46 0.47 0.53 0.55 0.52 0.48 0.42 0.36 0.31 0.28 0.23 0.16 0.12 0.10 0.08
0.00 0.00 0.00 0.00 0.00 0.00 0.00 0.00 0.00 0.00 0.00 0.00 0.00 0.01 0.03 0.04 0.05 0.07 0.09 0.09 0.11 0.16 0.21 0.25 0.26 0.28 0.26 0.25 0.27 0.27 0.25 0.25 0.24 0.22 0.19 0.18 0.16 0.14 0.11 0.10 0.09 0.08 0.06 0.06
0.01 0.00 0.00 0.00 0.00 0.00 0.00 0.00 0.00 0.00 0.00 0.00 0.00 0.05 0.06 0.10 0.13 0.11 0.10 0.12 0.17 0.24 0.27 0.28 0.25 0.22 0.20 0.18 0.17 0.16 0.15 0.14 0.14 0.12 0.10 0.10 0.09 0.07 0.07 0.06 0.05 0.05 0.05 0.05
0.00 0.00 0.00 0.00 0.00 0.00 0.00 0.00 0.00 0.00 0.00 0.00 0.01 0.10 0.10 0.15 0.20 0.18 0.17 0.17 0.22 0.30 0.32 0.32 0.26 0.20 0.17 0.15 0.13 0.13 0.14 0.13 0.11 0.10 0.08 0.07 0.06 0.05 0.05 0.04 0.04 0.04 0.05 0.05
0.00 0.00 0.01 0.02 0.01 0.00 0.00 0.00 0.00 0.00 0.00 0.00 0.02 0.12 0.16 0.27 0.30 0.31 0.28 0.24 0.30 0.42 0.44 0.38 0.27 0.18 0.14 0.13 0.12 0.12 0.14 0.13 0.10 0.07 0.05 0.04 0.04 0.04 0.04 0.04 0.04 0.04 0.05 0.06
0.00 0.00 0.02 0.09 0.06 0.02 0.01 0.01 0.01 0.01 0.01 0.01 0.04 0.16 0.19 0.37 0.47 0.40 0.38 0.37 0.41 0.47 0.39 0.29 0.22 0.18 0.16 0.15 0.14 0.13 0.11 0.09 0.07 0.05 0.04 0.04 0.04 0.04 0.05 0.06 0.06 0.06 0.07 0.08
0.01 0.01 0.01 0.03 0.02 0.02 0.03 0.03 0.03 0.03 0.04 0.04 0.09 0.24 0.33 0.50 0.61 0.54 0.43 0.37 0.37 0.36 0.33 0.31 0.29 0.25 0.19 0.15 0.13 0.11 0.11 0.09 0.07 0.06 0.06 0.06 0.06 0.07 0.08 0.10 0.10 0.10 0.10 0.09
0.01 0.02 0.03 0.03 0.02 0.02 0.03 0.03 0.04 0.04 0.05 0.07 0.17 0.37 0.50 0.52 0.51 0.50 0.43 0.36 0.38 0.45 0.48 0.45 0.35 0.26 0.19 0.17 0.17 0.16 0.15 0.13 0.11 0.10 0.11 0.12 0.12 0.13 0.14 0.14 0.14 0.14 0.12 0.11
0.01 0.01 0.03 0.04 0.03 0.04 0.07 0.06 0.05 0.06 0.07 0.10 0.20 0.33 0.34 0.39 0.41 0.40 0.38 0.39 0.44 0.49 0.47 0.40 0.31 0.25 0.24 0.25 0.25 0.25 0.23 0.21 0.20 0.19 0.18 0.18 0.17 0.17 0.17 0.15 0.13 0.11 0.09 0.06
0.01 0.02 0.05 0.04 0.05 0.09 0.10 0.05 0.05 0.06 0.08 0.09 0.13 0.15 0.19 0.25 0.28 0.29 0.30 0.35 0.39 0.42 0.40 0.37 0.32 0.30 0.32 0.33 0.32 0.30 0.27 0.24 0.23 0.23 0.22 0.21 0.19 0.17 0.14 0.11 0.09 0.07 0.05 0.05
0.00 0.03 0.08 0.09 0.12 0.13 0.12 0.06 0.04 0.07 0.10 0.09 0.11 0.13 0.15 0.16 0.20 0.22 0.23 0.24 0.27 0.31 0.30 0.29 0.30 0.35 0.39 0.38 0.35 0.31 0.29 0.27 0.26 0.24 0.20 0.16 0.12 0.09 0.07 0.06 0.05 0.04 0.04 0.04
0.01 0.03 0.12 0.17 0.25 0.29 0.28 0.10 0.04 0.08 0.17 0.11 0.10 0.11 0.13 0.17 0.24 0.21 0.17 0.16 0.16 0.17 0.21 0.28 0.36 0.41 0.42 0.38 0.32 0.29 0.27 0.23 0.19 0.14 0.10 0.07 0.04 0.04 0.03 0.03 0.03 0.04 0.04 0.03
0.10 0.10 0.19 0.28 0.36 0.39 0.18 0.08 0.08 0.22 0.31 0.25 0.19 0.18 0.21 0.25 0.26 0.20 0.13 0.12 0.12 0.17 0.26 0.33 0.38 0.39 0.35 0.28 0.22 0.19 0.16 0.13 0.10 0.07 0.04 0.03 0.02 0.01 0.02 0.02 0.04 0.05 0.05 0.05
0.23 0.26 0.29 0.34 0.44 0.51 0.18 0.12 0.21 0.26 0.22 0.24 0.22 0.19 0.19 0.19 0.16 0.13 0.11 0.12 0.16 0.25 0.34 0.37 0.37 0.33 0.25 0.18 0.15 0.13 0.11 0.07 0.05 0.05 0.04 0.03 0.02 0.01 0.01 0.04 0.06 0.06 0.07 0.06
0.43 0.37 0.38 0.43 0.46 0.32 0.14 0.11 0.12 0.15 0.19 0.19 0.18 0.17 0.18 0.21 0.21 0.20 0.20 0.24 0.30 0.35 0.37 0.34 0.28 0.22 0.15 0.10 0.09 0.08 0.06 0.04 0.04 0.06 0.05 0.03 0.03 0.02 0.02 0.05 0.07 0.07 0.08 0.06
0.51 0.40 0.36 0.38 0.36 0.25 0.16 0.11 0.09 0.11 0.16 0.18 0.20 0.24 0.28 0.32 0.33 0.31 0.31 0.33 0.34 0.32 0.26 0.19 0.14 0.10 0.06 0.04 0.03 0.03 0.03 0.02 0.04 0.05 0.04 0.04 0.04 0.05 0.05 0.06 0.06 0.07 0.07 0.05
0.36 0.51 0.59 0.59 0.53 0.39 0.23 0.16 0.16 0.17 0.21 0.27 0.33 0.35 0.38 0.36 0.33 0.31 0.30 0.28 0.22 0.16 0.11 0.08 0.06 0.04 0.02 0.01 0.01 0.01 0.01 0.02 0.04 0.04 0.03 0.04 0.04 0.04 0.07 0.07 0.04 0.03 0.04 0.01
0.14 0.38 0.75 0.91 0.68 0.55 0.42 0.33 0.35 0.35 0.34 0.35 0.34 0.33 0.32 0.28 0.23 0.21 0.19 0.15 0.11 0.08 0.06 0.06 0.04 0.02 0.01 0.00 0.00 0.00 0.00 0.01 0.03 0.06 0.05 0.03 0.02 0.03 0.04 0.07 0.08 0.03 0.01 0.00

GEFSCGP_prec_meanprecacc_060.txt.gz
Total_Precipitation_Accumulation
0.00 0.00 0.00 0.00 0.00 0.00 0.00 0.00 0.00 0.00 0.00 0.00 0.00 0.00 0.00 0.00 0.00 0.00 0.00 0.01 0.02 0.04 0.05 0.11 0.29 0.56 0.69 0.99 1.16 0.85 0.52 0.37 0.30 0.36 0.45 0.56 0.67 0.78 0.80 0.79 0.82 0.89 0.96 0.98
0.00 0.00 0.00 0.00 0.00 0.00 0.00 0.00 0.00 0.00 0.00 0.00 0.00 0.00 0.00 0.00 0.00 0.00 0.00 0.00 0.01 0.02 0.05 0.10 0.29 0.54 0.69 0.76 0.73 0.71 0.66 0.65 0.55 0.63 0.78 1.00 1.20 1.27 1.32 1.43 1.60 1.71 1.64 1.46
0.00 0.00 0.00 0.00 0.00 0.00 0.00 0.00 0.00 0.00 0.00 0.00 0.00 0.00 0.00 0.01 0.00 0.00 0.00 0.01 0.01 0.02 0.03 0.08 0.25 0.46 0.59 0.70 0.69 0.71 0.78 0.88 0.86 0.99 1.17 1.40 1.66 1.86 1.98 2.05 2.09 2.01 1.81 1.62
0.00 0.00 0.00 0.00 0.00 0.00 0.00 0.00 0.00 0.00 0.00 0.00 0.00 0.00 0.00 0.01 0.01 0.01 0.01 0.01 0.02 0.02 0.03 0.06 0.17 0.39 0.52 0.64 0.75 0.76 0.87 1.02 1.20 1.40 1.56 1.82 2.11 2.27 2.26 2.05 1.88 1.68 1.49 1.31
0.00 0.00 0.00 0.00 0.00 0.00 0.00 0.00 0.00 0.00 0.00 0.00 0.00 0.00 0.00 0.00 0.01 0.02 0.03 0.04 0.04 0.04 0.05 0.08 0.13 0.28 0.45 0.60 0.69 0.82 0.99 1.19 1.49 1.81 2.04 2.24 2.34 2.24 2.02 1.77 1.50 1.37 1.23 1.07
0.00 0.00 0.00 0.00 0.00 0.00 0.00 0.00 0.00 0.00 0.00 0.00 0.00 0.00 0.01 0.02 0.02 0.03 0.04 0.05 0.06 0.06 0.06 0.09 0.14 0.27 0.39 0.50 0.67 0.86 1.09 1.35 1.61 1.88 2.14 2.21 2.17 2.07 1.85 1.52 1.30 1.17 1.01 0.82
0.00 0.00 0.00 0.00 0.00 0.00 0.00 0.00 0.00 0.00 0.00 0.00 0.00 0.01 0.03 0.03 0.04 0.04 0.04 0.06 0.08 0.08 0.09 0.11 0.16 0.22 0.32 0.42 0.58 0.75 0.88 1.12 1.36 1.60 1.86 1.90 1.78 1.60 1.33 1.18 1.06 0.88 0.69 0.53
0.00 0.00 0.00 0.00 0.00 0.00 0.00 0.00 0.00 0.00 0.00 0.00 0.00 0.03 0.11 0.08 0.08 0.08 0.09 0.09 0.09 0.11 0.11 0.15 0.20 0.25 0.34 0.43 0.54 0.63 0.74 0.90 1.07 1.17 1.23 1.12 0.99 0.91 0.83 0.74 0.59 0.45 0.34 0.26
0.00 0.00 0.00 0.00 0.00 0.00 0.00 0.00 0.00 0.00 0.00 0.00 0.02 0.10 0.19 0.21 0.18 0.17 0.16 0.14 0.14 0.15 0.17 0.21 0.26 0.31 0.37 0.41 0.48 0.50 0.51 0.58 0.61 0.60 0.57 0.53 0.48 0.44 0.40 0.33 0.25 0.20 0.16 0.13
0.01 0.00 0.00 0.00 0.00 0.00 0.00 0.00 0.00 0.00 0.00 0.00 0.02 0.09 0.17 0.26 0.28 0.23 0.20 0.17 0.17 0.21 0.24 0.28 0.29 0.31 0.28 0.27 0.29 0.29 0.28 0.28 0.28 0.26 0.24 0.23 0.22 0.20 0.17 0.15 0.13 0.11 0.09 0.07
0.02 0.01 0.00 0.00 0.00 0.00 0.00 0.00 0.00 0.00 0.00 0.00 0.02 0.13 0.23 0.35 0.43 0.41 0.35 0.26 0.26 0.30 0.31 0.31 0.28 0.24 0.21 0.20 0.18 0.17 0.17 0.16 0.16 0.15 0.13 0.12 0.11 0.09 0.08 0.07 0.07 0.06 0.05 0.05
0.01 0.01 0.01 0.01 0.00 0.00 0.00 0.00 0.00 0.00 0.00 0.00 0.03 0.21 0.33 0.44 0.50 0.48 0.43 0.34 0.31 0.34 0.36 0.34 0.28 0.22 0.19 0.16 0.14 0.14 0.15 0.15 0.13 0.11 0.09 0.08 0.07 0.07 0.06 0.05 0.05 0.05 0.05 0.05
0.02 0.02 0.03 0.03 0.02 0.01 0.00 0.01 0.00 0.00 0.00 0.01 0.04 0.24 0.40 0.55 0.55 0.53 0.50 0.41 0.41 0.50 0.50 0.41 0.29 0.20 0.15 0.14 0.13 0.13 0.15 0.14 0.11 0.08 0.05 0.05 0.04 0.04 0.04 0.05 0.05 0.05 0.05 0.06
0.02 0.03 0.07 0.17 0.10 0.03 0.02 0.02 0.02 0.02 0.02 0.03 0.09 0.25 0.36 0.58 0.68 0.62 0.56 0.52 0.52 0.56 0.46 0.33 0.24 0.19 0.17 0.15 0.15 0.14 0.12 0.10 0.08 0.05 0.04 0.04 0.04 0.05 0.05 0.06 0.06 0.06 0.07 0.08
0.02 0.05 0.05 0.10 0.06 0.04 0.05 0.04 0.04 0.05 0.06 0.09 0.18 0.34 0.47 0.69 0.79 0.73 0.60 0.52 0.49 0.46 0.41 0.37 0.32 0.27 0.21 0.16 0.14 0.12 0.12 0.10 0.08 0.06 0.06 0.06 0.07 0.07 0.08 0.10 0.10 0.10 0.10 0.09
0.03 0.05 0.06 0.08 0.07 0.06 0.07 0.07 0.09 0.11 0.13 0.17 0.30 0.51 0.68 0.69 0.65 0.63 0.56 0.49 0.50 0.56 0.56 0.51 0.40 0.29 0.22 0.19 0.18 0.17 0.16 0.14 0.11 0.11 0.12 0.12 0.12 0.13 0.14 0.14 0.14 0.14 0.12 0.11
0.03 0.03 0.06 0.09 0.09 0.10 0.18 0.20 0.20 0.22 0.20 0.23 0.32 0.45 0.50 0.53 0.52 0.52 0.49 0.50 0.55 0.58 0.54 0.46 0.35 0.28 0.27 0.27 0.27 0.26 0.24 0.21 0.20 0.19 0.18 0.18 0.17 0.17 0.17 0.15 0.13 0.11 0.09 0.06
0.02 0.05 0.08 0.07 0.09 0.20 0.30 0.22 0.21 0.19 0.18 0.20 0.23 0.25 0.28 0.35 0.39 0.41 0.41 0.46 0.52 0.55 0.52 0.45 0.38 0.35 0.36 0.35 0.34 0.31 0.28 0.24 0.23 0.23 0.23 0.21 0.19 0.17 0.14 0.11 0.09 0.07 0.05 0.05
0.01 0.04 0.10 0.11 0.16 0.23 0.26 0.17 0.17 0.20 0.21 0.18 0.18 0.19 0.21 0.23 0.26 0.31 0.33 0.35 0.37 0.41 0.39 0.35 0.35 0.38 0.40 0.39 0.35 0.32 0.30 0.27 0.26 0.24 0.20 0.16 0.12 0.09 0.07 0.06 0.05 0.04 0.04 0.04
0.01 0.03 0.12 0.19 0.28 0.37 0.36 0.17 0.11 0.16 0.28 0.22 0.17 0.16 0.19 0.25 0.31 0.29 0.25 0.24 0.23 0.24 0.26 0.31 0.38 0.42 0.43 0.39 0.32 0.30 0.27 0.23 0.19 0.14 0.10 0.07 0.05 0.04 0.03 0.03 0.03 0.04 0.04 0.04
0.10 0.10 0.20 0.30 0.39 0.43 0.21 0.10 0.11 0.28 0.40 0.34 0.27 0.26 0.28 0.34 0.33 0.24 0.17 0.17 0.18 0.22 0.29 0.35 0.38 0.39 0.35 0.28 0.22 0.19 0.17 0.14 0.10 0.07 0.05 0.03 0.02 0.02 0.02 0.03 0.04 0.05 0.05 0.05
0.23 0.27 0.31 0.37 0.47 0.54 0.21 0.13 0.24 0.30 0.26 0.29 0.27 0.26 0.26 0.24 0.20 0.16 0.15 0.16 0.19 0.27 0.35 0.38 0.37 0.33 0.25 0.19 0.15 0.14 0.11 0.07 0.05 0.05 0.04 0.03 0.02 0.01 0.02 0.04 0.07 0.07 0.07 0.06
0.43 0.37 0.39 0.44 0.47 0.34 0.16 0.12 0.14 0.18 0.21 0.21 0.20 0.19 0.19 0.22 0.22 0.20 0.21 0.25 0.31 0.36 0.38 0.34 0.29 0.23 0.16 0.11 0.09 0.09 0.07 0.04 0.05 0.06 0.05 0.04 0.03 0.03 0.03 0.05 0.07 0.08 0.08 0.06
0.52 0.40 0.37 0.39 0.38 0.27 0.17 0.12 0.10 0.13 0.17 0.19 0.21 0.24 0.28 0.33 0.33 0.31 0.31 0.34 0.35 0.33 0.27 0.20 0.14 0.10 0.07 0.04 0.03 0.03 0.03 0.02 0.04 0.05 0.04 0.04 0.05 0.05 0.06 0.07 0.06 0.07 0.07 0.05
0.36 0.52 0.60 0.61 0.55 0.41 0.25 0.17 0.17 0.18 0.21 0.28 0.34 0.36 0.38 0.36 0.33 0.31 0.31 0.28 0.23 0.17 0.11 0.08 0.06 0.04 0.03 0.02 0.01 0.01 0.01 0.02 0.05 0.05 0.04 0.04 0.04 0.05 0.09 0.09 0.05 0.04 0.04 0.01
0.14 0.38 0.76 0.92 0.70 0.57 0.43 0.34 0.36 0.36 0.35 0.35 0.34 0.33 0.32 0.28 0.23 0.21 0.19 0.15 0.12 0.08 0.06 0.06 0.04 0.02 0.01 0.01 0.00 0.00 0.00 0.01 0.03 0.06 0.05 0.03 0.03 0.04 0.06 0.09 0.10 0.04 0.01 0.00

GEFSCGP_prec_meanprecacc_066.txt.gz
Total_Precipitation_Accumulation
0.00 0.00 0.00 0.00 0.00 0.00 0.00 0.00 0.00 0.00 0.00 0.00 0.00 0.00 0.00 0.00 0.00 0.01 0.01 0.01 0.02 0.04 0.06 0.12 0.31 0.58 0.71 1.02 1.18 0.88 0.57 0.44 0.40 0.48 0.58 0.72 0.84 0.94 1.00 1.00 1.02 1.09 1.15 1.18
0.00 0.00 0.00 0.00 0.00 0.00 0.00 0.00 0.00 0.00 0.00 0.00 0.00 0.00 0.01 0.01 0.01 0.01 0.01 0.01 0.02 0.03 0.06 0.11 0.32 0.59 0.76 0.83 0.80 0.78 0.74 0.76 0.71 0.82 1.02 1.27 1.50 1.59 1.68 1.76 1.90 2.01 1.95 1.78
0.00 0.00 0.00 0.00 0.00 0.00 0.00 0.00 0.00 0.00 0.00 0.00 0.00 0.01 0.01 0.02 0.01 0.01 0.01 0.01 0.02 0.03 0.05 0.11 0.29 0.52 0.66 0.78 0.80 0.83 0.91 1.04 1.03 1.22 1.48 1.79 2.10 2.32 2.46 2.48 2.49 2.39 2.19 2.03
0.00 0.00 0.00 0.00 0.00 0.00 0.00 0.00 0.00 0.00 0.00 0.00 0.00 0.01 0.02 0.03 0.02 0.03 0.03 0.04 0.04 0.05 0.07 0.10 0.22 0.44 0.57 0.71 0.85 0.93 1.04 1.23 1.48 1.72 1.96 2.32 2.67 2.87 2.87 2.65 2.46 2.22 1.98 1.79
0.00 0.00 0.00 0.00 0.00 0.00 0.00 0.00 0.00 0.00 0.00 0.00 0.00 0.00 0.03 0.04 0.03 0.05 0.06 0.07 0.07 0.08 0.11 0.14 0.20 0.36 0.54 0.69 0.81 0.99 1.18 1.40 1.80 2.26 2.62 2.92 3.08 2.98 2.72 2.46 2.14 1.93 1.72 1.52
0.00 0.00 0.00 0.00 0.00 0.00 0.00 0.00 0.00 0.00 0.00 0.00 0.00 0.01 0.03 0.05 0.04 0.06 0.07 0.10 0.11 0.11 0.12 0.16 0.22 0.36 0.48 0.59 0.77 0.98 1.24 1.52 1.90 2.31 2.67 2.83 2.87 2.78 2.53 2.16 1.81 1.59 1.38 1.16
0.00 0.00 0.00 0.00 0.00 0.00 0.00 0.00 0.00 0.00 0.00 0.00 0.01 0.02 0.07 0.07 0.07 0.07 0.08 0.11 0.14 0.14 0.15 0.19 0.25 0.32 0.42 0.51 0.68 0.85 0.99 1.28 1.56 1.86 2.18 2.24 2.16 1.99 1.72 1.56 1.43 1.21 0.95 0.74
0.00 0.00 0.00 0.00 0.00 0.00 0.00 0.00 0.00 0.00 0.00 0.01 0.02 0.06 0.16 0.12 0.10 0.11 0.12 0.12 0.14 0.17 0.17 0.22 0.28 0.34 0.47 0.57 0.66 0.75 0.86 1.04 1.21 1.33 1.40 1.32 1.20 1.12 1.04 0.95 0.79 0.61 0.46 0.35
0.00 0.00 0.00 0.00 0.00 0.00 0.00 0.00 0.00 0.00 0.00 0.01 0.04 0.12 0.25 0.28 0.22 0.20 0.20 0.17 0.18 0.21 0.23 0.29 0.34 0.40 0.45 0.51 0.59 0.59 0.60 0.70 0.74 0.72 0.69 0.66 0.63 0.60 0.55 0.45 0.35 0.28 0.22 0.18
0.01 0.00 0.00 0.00 0.00 0.00 0.00 0.00 0.00 0.00 0.00 0.00 0.04 0.13 0.22 0.34 0.36 0.29 0.25 0.20 0.21 0.25 0.30 0.35 0.37 0.38 0.35 0.34 0.36 0.36 0.34 0.35 0.37 0.37 0.33 0.31 0.28 0.26 0.23 0.19 0.17 0.14 0.12 0.09
0.02 0.01 0.00 0.00 0.00 0.00 0.00 0.00 0.00 0.00 0.00 0.00 0.03 0.16 0.28 0.40 0.49 0.47 0.40 0.31 0.29 0.33 0.35 0.35 0.33 0.30 0.27 0.25 0.23 0.22 0.22 0.21 0.21 0.20 0.18 0.16 0.14 0.11 0.10 0.09 0.08 0.07 0.06 0.06
0.02 0.02 0.01 0.01 0.00 0.01 0.00 0.00 0.00 0.00 0.00 0.00 0.03 0.24 0.38 0.50 0.55 0.53 0.47 0.38 0.35 0.38 0.40 0.38 0.31 0.26 0.22 0.19 0.17 0.16 0.17 0.17 0.16 0.14 0.11 0.10 0.08 0.08 0.07 0.06 0.06 0.05 0.06 0.06
0.03 0.03 0.04 0.04 0.02 0.01 0.01 0.01 0.01 0.00 0.00 0.01 0.05 0.27 0.45 0.60 0.60 0.59 0.55 0.47 0.47 0.56 0.57 0.48 0.36 0.26 0.19 0.17 0.16 0.16 0.17 0.16 0.13 0.09 0.07 0.06 0.05 0.05 0.05 0.05 0.06 0.06 0.06 0.07
0.03 0.05 0.08 0.18 0.11 0.04 0.02 0.02 0.02 0.02 0.02 0.03 0.11 0.28 0.39 0.63 0.74 0.67 0.62 0.60 0.61 0.65 0.55 0.42 0.33 0.26 0.22 0.19 0.17 0.16 0.14 0.11 0.08 0.06 0.04 0.05 0.05 0.05 0.06 0.07 0.07 0.07 0.08 0.08
0.03 0.06 0.06 0.11 0.07 0.05 0.07 0.06 0.05 0.06 0.07 0.10 0.21 0.37 0.50 0.73 0.84 0.78 0.64 0.58 0.57 0.54 0.49 0.45 0.39 0.32 0.24 0.19 0.16 0.13 0.12 0.11 0.08 0.07 0.06 0.07 0.07 0.07 0.09 0.10 0.11 0.11 0.10 0.09
0.03 0.06 0.07 0.09 0.09 0.07 0.09 0.09 0.11 0.14 0.16 0.21 0.35 0.56 0.74 0.75 0.71 0.69 0.61 0.55 0.58 0.65 0.66 0.60 0.47 0.36 0.26 0.21 0.20 0.19 0.17 0.14 0.12 0.11 0.12 0.12 0.12 0.13 0.14 0.14 0.14 0.14 0.12 0.11
0.04 0.04 0.07 0.10 0.10 0.11 0.19 0.21 0.23 0.25 0.25 0.30 0.39 0.51 0.57 0.60 0.60 0.61 0.58 0.59 0.64 0.68 0.64 0.55 0.44 0.36 0.32 0.31 0.29 0.27 0.25 0.22 0.20 0.19 0.19 0.18 0.17 0.17 0.17 0.15 0.13 0.11 0.09 0.06
0.03 0.05 0.09 0.08 0.10 0.20 0.32 0.25 0.24 0.22 0.21 0.23 0.27 0.31 0.37 0.45 0.50 0.52 0.53 0.58 0.64 0.67 0.65 0.58 0.49 0.43 0.41 0.39 0.36 0.32 0.28 0.25 0.23 0.24 0.23 0.21 0.19 0.17 0.14 0.11 0.09 0.07 0.05 0.05
0.01 0.05 0.10 0.12 0.16 0.24 0.27 0.19 0.20 0.23 0.22 0.19 0.21 0.24 0.28 0.31 0.36 0.45 0.49 0.51 0.56 0.59 0.55 0.49 0.44 0.43 0.43 0.41 0.36 0.32 0.30 0.28 0.26 0.24 0.20 0.16 0.12 0.09 0.07 0.06 0.05 0.04 0.04 0.04
0.02 0.04 0.13 0.19 0.28 0.37 0.36 0.18 0.12 0.19 0.30 0.25 0.21 0.20 0.25 0.32 0.41 0.41 0.36 0.35 0.37 0.37 0.36 0.39 0.43 0.45 0.44 0.39 0.33 0.30 0.27 0.23 0.19 0.14 0.10 0.07 0.05 0.04 0.03 0.03 0.03 0.04 0.04 0.04
0.10 0.10 0.20 0.30 0.39 0.44 0.21 0.10 0.12 0.30 0.42 0.40 0.34 0.32 0.34 0.40 0.41 0.31 0.24 0.24 0.26 0.29 0.35 0.38 0.40 0.40 0.36 0.28 0.22 0.20 0.17 0.14 0.10 0.07 0.05 0.03 0.02 0.02 0.02 0.03 0.04 0.05 0.05 0.05
0.23 0.27 0.31 0.37 0.47 0.54 0.21 0.13 0.25 0.31 0.27 0.34 0.34 0.34 0.35 0.33 0.28 0.24 0.22 0.24 0.26 0.32 0.38 0.40 0.38 0.33 0.25 0.19 0.15 0.14 0.12 0.07 0.05 0.05 0.04 0.03 0.02 0.01 0.02 0.04 0.07 0.07 0.07 0.06
0.43 0.37 0.39 0.44 0.48 0.34 0.16 0.13 0.14 0.18 0.22 0.23 0.23 0.23 0.28 0.31 0.28 0.26 0.27 0.30 0.36 0.40 0.40 0.35 0.29 0.23 0.16 0.11 0.09 0.09 0.07 0.04 0.05 0.06 0.05 0.04 0.03 0.03 0.03 0.05 0.07 0.08 0.08 0.06
0.52 0.40 0.37 0.39 0.38 0.27 0.18 0.13 0.11 0.14 0.19 0.20 0.22 0.26 0.31 0.38 0.37 0.34 0.33 0.36 0.37 0.34 0.27 0.20 0.14 0.10 0.07 0.04 0.03 0.03 0.03 0.02 0.04 0.05 0.04 0.04 0.05 0.05 0.06 0.07 0.06 0.07 0.07 0.05
0.36 0.52 0.60 0.61 0.55 0.41 0.25 0.18 0.18 0.18 0.22 0.29 0.35 0.37 0.39 0.37 0.35 0.33 0.32 0.29 0.24 0.17 0.11 0.08 0.06 0.04 0.03 0.02 0.01 0.01 0.01 0.02 0.05 0.05 0.04 0.04 0.04 0.05 0.09 0.09 0.05 0.04 0.04 0.01
0.14 0.38 0.76 0.92 0.70 0.57 0.43 0.34 0.36 0.36 0.35 0.35 0.35 0.34 0.32 0.28 0.24 0.22 0.19 0.15 0.12 0.08 0.06 0.06 0.04 0.02 0.01 0.01 0.00 0.00 0.00 0.01 0.03 0.06 0.05 0.03 0.03 0.04 0.06 0.09 0.10 0.04 0.01 0.00

GEFSCGP_prec_meanprecacc_072.txt.gz
Total_Precipitation_Accumulation
0.00 0.00 0.00 0.00 0.00 0.00 0.00 0.00 0.00 0.00 0.00 0.00 0.00 0.00 0.01 0.01 0.01 0.01 0.01 0.01 0.03 0.05 0.08 0.14 0.32 0.59 0.72 1.04 1.21 0.91 0.60 0.47 0.44 0.53 0.64 0.79 0.91 1.04 1.12 1.16 1.21 1.28 1.35 1.36
0.00 0.00 0.00 0.00 0.00 0.00 0.00 0.00 0.00 0.00 0.00 0.00 0.00 0.01 0.01 0.01 0.02 0.01 0.01 0.02 0.02 0.04 0.07 0.13 0.34 0.62 0.78 0.88 0.86 0.83 0.78 0.81 0.76 0.90 1.13 1.40 1.67 1.80 1.94 2.09 2.22 2.30 2.24 2.08
0.00 0.00 0.00 0.00 0.00 0.00 0.00 0.00 0.00 0.00 0.00 0.00 0.00 0.02 0.02 0.03 0.02 0.02 0.02 0.02 0.03 0.05 0.07 0.13 0.31 0.55 0.70 0.84 0.87 0.88 0.95 1.08 1.09 1.33 1.68 2.05 2.39 2.62 2.77 2.86 2.91 2.83 2.59 2.38
0.00 0.00 0.00 0.00 0.00 0.00 0.00 0.00 0.00 0.00 0.00 0.00 0.00 0.02 0.04 0.04 0.03 0.04 0.04 0.05 0.06 0.06 0.08 0.13 0.25 0.48 0.61 0.77 0.91 0.98 1.09 1.28 1.56 1.84 2.14 2.59 3.01 3.23 3.26 3.07 2.89 2.63 2.37 2.13
0.00 0.00 0.00 0.00 0.00 0.00 0.00 0.00 0.00 0.00 0.00 0.00 0.00 0.01 0.05 0.06 0.05 0.07 0.08 0.09 0.09 0.10 0.12 0.16 0.24 0.41 0.59 0.75 0.88 1.06 1.23 1.47 1.89 2.39 2.78 3.14 3.38 3.35 3.08 2.79 2.43 2.20 1.99 1.78
0.00 0.00 0.00 0.00 0.00 0.00 0.00 0.00 0.00 0.00 0.00 0.00 0.00 0.02 0.06 0.08 0.06 0.08 0.10 0.12 0.13 0.14 0.15 0.19 0.26 0.40 0.53 0.64 0.82 1.05 1.32 1.59 1.98 2.43 2.87 3.10 3.20 3.15 2.87 2.46 2.10 1.84 1.61 1.38
0.00 0.00 0.00 0.00 0.00 0.00 0.00 0.00 0.00 0.00 0.00 0.01 0.01 0.04 0.10 0.10 0.08 0.08 0.10 0.14 0.17 0.17 0.19 0.23 0.29 0.36 0.47 0.56 0.73 0.91 1.07 1.37 1.67 2.00 2.36 2.43 2.36 2.21 1.96 1.81 1.67 1.41 1.12 0.89
0.00 0.00 0.00 0.00 0.00 0.00 0.00 0.00 0.00 0.00 0.00 0.02 0.04 0.09 0.20 0.15 0.12 0.12 0.14 0.14 0.17 0.19 0.20 0.25 0.31 0.37 0.51 0.62 0.72 0.81 0.93 1.12 1.30 1.42 1.51 1.47 1.35 1.27 1.21 1.12 0.94 0.75 0.58 0.44
0.00 0.00 0.00 0.00 0.00 0.00 0.00 0.00 0.00 0.00 0.00 0.03 0.07 0.15 0.29 0.30 0.24 0.23 0.22 0.18 0.20 0.23 0.26 0.32 0.38 0.43 0.49 0.56 0.64 0.64 0.65 0.75 0.79 0.78 0.77 0.75 0.74 0.71 0.65 0.55 0.44 0.36 0.28 0.23
0.01 0.00 0.00 0.00 0.00 0.00 0.00 0.00 0.00 0.00 0.00 0.03 0.07 0.15 0.24 0.36 0.37 0.31 0.26 0.22 0.23 0.27 0.32 0.38 0.40 0.41 0.38 0.38 0.40 0.41 0.38 0.39 0.40 0.42 0.39 0.37 0.36 0.32 0.28 0.24 0.22 0.18 0.15 0.12
0.02 0.02 0.00 0.00 0.00 0.00 0.00 0.00 0.00 0.00 0.00 0.01 0.05 0.19 0.30 0.42 0.51 0.48 0.42 0.33 0.31 0.35 0.36 0.36 0.35 0.32 0.29 0.27 0.25 0.24 0.24 0.24 0.24 0.24 0.23 0.21 0.18 0.15 0.12 0.11 0.10 0.09 0.08 0.08
0.03 0.03 0.02 0.01 0.01 0.01 0.00 0.00 0.00 0.00 0.00 0.00 0.04 0.27 0.39 0.52 0.57 0.54 0.48 0.40 0.36 0.39 0.41 0.39 0.33 0.27 0.23 0.20 0.18 0.18 0.19 0.19 0.18 0.16 0.15 0.12 0.10 0.09 0.08 0.07 0.07 0.07 0.07 0.07
0.04 0.05 0.05 0.05 0.03 0.01 0.01 0.01 0.01 0.01 0.01 0.01 0.06 0.29 0.46 0.62 0.63 0.60 0.57 0.48 0.49 0.58 0.59 0.50 0.38 0.27 0.21 0.19 0.18 0.18 0.19 0.18 0.15 0.11 0.09 0.08 0.06 0.06 0.06 0.06 0.06 0.06 0.07 0.07
0.04 0.06 0.10 0.19 0.13 0.04 0.03 0.03 0.03 0.03 0.03 0.04 0.12 0.29 0.41 0.65 0.76 0.70 0.65 0.62 0.63 0.67 0.58 0.45 0.36 0.29 0.24 0.21 0.19 0.17 0.15 0.12 0.10 0.07 0.06 0.06 0.06 0.06 0.07 0.07 0.08 0.08 0.08 0.09
0.04 0.08 0.08 0.13 0.09 0.06 0.07 0.06 0.06 0.08 0.09 0.12 0.23 0.40 0.53 0.77 0.87 0.81 0.67 0.61 0.60 0.58 0.54 0.50 0.44 0.36 0.27 0.21 0.17 0.14 0.13 0.12 0.09 0.08 0.08 0.08 0.08 0.08 0.10 0.11 0.11 0.11 0.11 0.09
0.04 0.08 0.09 0.11 0.10 0.09 0.10 0.10 0.12 0.16 0.18 0.25 0.39 0.60 0.79 0.81 0.76 0.73 0.66 0.60 0.63 0.71 0.73 0.68 0.56 0.43 0.31 0.25 0.23 0.21 0.19 0.15 0.12 0.12 0.13 0.13 0.13 0.14 0.15 0.15 0.14 0.14 0.12 0.11
0.05 0.06 0.09 0.12 0.10 0.12 0.22 0.23 0.25 0.28 0.29 0.35 0.45 0.55 0.62 0.67 0.68 0.70 0.69 0.70 0.76 0.80 0.77 0.67 0.54 0.43 0.39 0.37 0.35 0.31 0.27 0.23 0.21 0.20 0.19 0.18 0.17 0.18 0.17 0.15 0.13 0.11 0.09 0.07
0.03 0.06 0.10 0.10 0.12 0.23 0.34 0.27 0.26 0.24 0.23 0.25 0.30 0.34 0.42 0.54 0.62 0.68 0.72 0.80 0.89 0.91 0.85 0.74 0.61 0.53 0.47 0.43 0.39 0.34 0.29 0.25 0.24 0.24 0.23 0.22 0.19 0.17 0.14 0.11 0.09 0.07 0.06 0.05
0.02 0.06 0.11 0.13 0.19 0.26 0.29 0.20 0.22 0.26 0.24 0.20 0.22 0.26 0.33 0.39 0.48 0.67 0.75 0.78 0.83 0.85 0.79 0.70 0.60 0.54 0.51 0.45 0.39 0.33 0.31 0.28 0.26 0.24 0.20 0.16 0.12 0.10 0.08 0.06 0.05 0.04 0.04 0.04
0.02 0.04 0.14 0.20 0.30 0.39 0.37 0.18 0.13 0.22 0.33 0.26 0.21 0.22 0.28 0.38 0.52 0.56 0.56 0.58 0.57 0.56 0.53 0.53 0.55 0.54 0.50 0.42 0.34 0.31 0.28 0.24 0.20 0.14 0.10 0.07 0.05 0.04 0.03 0.03 0.04 0.04 0.04 0.04
0.10 0.10 0.21 0.31 0.40 0.45 0.21 0.10 0.15 0.36 0.47 0.43 0.37 0.35 0.37 0.45 0.47 0.40 0.35 0.39 0.41 0.43 0.47 0.48 0.47 0.46 0.40 0.30 0.23 0.21 0.18 0.15 0.11 0.07 0.05 0.03 0.02 0.02 0.02 0.03 0.05 0.06 0.06 0.06
0.23 0.27 0.31 0.37 0.48 0.55 0.21 0.14 0.28 0.34 0.30 0.39 0.40 0.40 0.41 0.39 0.32 0.28 0.29 0.32 0.36 0.42 0.46 0.46 0.42 0.36 0.27 0.20 0.16 0.15 0.12 0.08 0.06 0.05 0.04 0.03 0.02 0.02 0.02 0.05 0.08 0.08 0.08 0.07
0.44 0.38 0.39 0.44 0.48 0.35 0.16 0.14 0.16 0.20 0.24 0.26 0.26 0.28 0.36 0.41 0.38 0.32 0.33 0.38 0.43 0.46 0.46 0.40 0.33 0.25 0.17 0.11 0.10 0.10 0.08 0.05 0.05 0.07 0.06 0.04 0.03 0.03 0.03 0.06 0.08 0.09 0.08 0.06
0.52 0.40 0.37 0.39 0.39 0.27 0.18 0.14 0.12 0.14 0.20 0.21 0.24 0.28 0.35 0.48 0.50 0.43 0.40 0.42 0.43 0.40 0.31 0.23 0.16 0.11 0.08 0.05 0.04 0.04 0.03 0.03 0.05 0.06 0.05 0.04 0.05 0.06 0.06 0.07 0.06 0.07 0.07 0.05
0.36 0.52 0.60 0.61 0.55 0.41 0.25 0.18 0.18 0.18 0.22 0.29 0.36 0.38 0.41 0.42 0.42 0.40 0.38 0.34 0.27 0.19 0.12 0.09 0.07 0.05 0.03 0.02 0.02 0.01 0.02 0.02 0.05 0.06 0.04 0.04 0.05 0.05 0.09 0.09 0.05 0.04 0.04 0.02
0.14 0.38 0.76 0.92 0.70 0.57 0.44 0.34 0.36 0.36 0.35 0.36 0.35 0.34 0.33 0.29 0.26 0.25 0.22 0.17 0.13 0.09 0.07 0.06 0.04 0.02 0.01 0.01 0.00 0.00 0.00 0.01 0.04 0.06 0.05 0.03 0.03 0.05 0.06 0.10 0.10 0.04 0.01 0.00

GEFSCGP_prec_meanprecacc_078.txt.gz
Total_Precipitation_Accumulation
0.00 0.00 0.00 0.00 0.00 0.00 0.00 0.00 0.00 0.00 0.00 0.00 0.00 0.01 0.02 0.02 0.03 0.05 0.10 0.16 0.11 0.11 0.14 0.21 0.45 0.70 0.78 1.09 1.28 1.00 0.69 0.57 0.55 0.64 0.75 0.91 1.05 1.17 1.25 1.28 1.32 1.41 1.48 1.48
0.00 0.00 0.00 0.00 0.00 0.00 0.00 0.00 0.00 0.00 0.00 0.00 0.01 0.02 0.05 0.04 0.06 0.11 0.13 0.16 0.12 0.10 0.16 0.25 0.44 0.69 0.87 0.98 0.95 0.92 0.88 0.92 0.87 1.02 1.29 1.59 1.85 1.97 2.12 2.26 2.39 2.46 2.40 2.24
0.00 0.00 0.00 0.00 0.00 0.00 0.00 0.00 0.00 0.00 0.00 0.01 0.02 0.06 0.08 0.08 0.06 0.12 0.17 0.16 0.11 0.11 0.18 0.29 0.42 0.61 0.77 0.93 0.98 0.99 1.05 1.19 1.22 1.49 1.89 2.28 2.63 2.85 3.02 3.07 3.09 3.00 2.74 2.50
0.00 0.00 0.00 0.00 0.00 0.00 0.00 0.00 0.00 0.00 0.00 0.01 0.02 0.10 0.14 0.10 0.09 0.13 0.18 0.13 0.11 0.11 0.17 0.27 0.34 0.55 0.68 0.83 1.00 1.09 1.19 1.38 1.68 1.99 2.34 2.82 3.21 3.46 3.51 3.33 3.10 2.79 2.49 2.23
0.00 0.00 0.00 0.00 0.00 0.00 0.00 0.00 0.00 0.01 0.00 0.01 0.01 0.07 0.18 0.14 0.11 0.14 0.17 0.16 0.13 0.13 0.17 0.24 0.31 0.47 0.65 0.81 0.95 1.15 1.33 1.59 2.00 2.54 2.98 3.37 3.65 3.66 3.39 3.05 2.63 2.36 2.13 1.90
0.00 0.00 0.00 0.00 0.00 0.00 0.00 0.00 0.00 0.01 0.00 0.01 0.02 0.07 0.19 0.21 0.16 0.15 0.15 0.16 0.17 0.16 0.17 0.21 0.29 0.43 0.58 0.70 0.89 1.11 1.38 1.68 2.09 2.57 3.08 3.35 3.48 3.44 3.15 2.71 2.31 2.02 1.75 1.49
0.00 0.00 0.00 0.00 0.00 0.00 0.00 0.00 0.00 0.00 0.00 0.02 0.03 0.10 0.26 0.29 0.24 0.20 0.16 0.17 0.19 0.19 0.21 0.25 0.31 0.38 0.50 0.61 0.79 0.97 1.14 1.47 1.77 2.12 2.52 2.59 2.54 2.40 2.14 2.00 1.84 1.56 1.25 0.99
0.02 0.02 0.01 0.00 0.00 0.00 0.00 0.00 0.00 0.01 0.02 0.03 0.06 0.18 0.35 0.29 0.25 0.20 0.20 0.18 0.19 0.22 0.23 0.27 0.32 0.39 0.53 0.65 0.76 0.87 1.00 1.20 1.38 1.50 1.61 1.57 1.46 1.39 1.33 1.24 1.05 0.85 0.68 0.53
0.03 0.03 0.01 0.00 0.00 0.00 0.00 0.00 0.00 0.00 0.02 0.06 0.15 0.25 0.38 0.37 0.33 0.29 0.26 0.21 0.22 0.26 0.29 0.34 0.40 0.45 0.51 0.58 0.67 0.69 0.70 0.81 0.84 0.82 0.81 0.81 0.83 0.80 0.74 0.63 0.51 0.42 0.34 0.28
0.03 0.03 0.01 0.00 0.00 0.00 0.00 0.00 0.00 0.00 0.01 0.07 0.16 0.25 0.32 0.41 0.40 0.34 0.29 0.24 0.25 0.30 0.35 0.40 0.42 0.43 0.40 0.40 0.43 0.44 0.42 0.42 0.44 0.45 0.42 0.42 0.42 0.40 0.34 0.29 0.26 0.22 0.18 0.14
0.03 0.04 0.02 0.00 0.01 0.00 0.00 0.00 0.00 0.00 0.00 0.04 0.14 0.33 0.41 0.52 0.55 0.50 0.44 0.34 0.32 0.36 0.38 0.38 0.36 0.33 0.31 0.29 0.27 0.27 0.27 0.27 0.27 0.28 0.26 0.24 0.22 0.18 0.15 0.13 0.12 0.11 0.10 0.09
0.03 0.07 0.06 0.02 0.01 0.01 0.00 0.00 0.00 0.01 0.01 0.02 0.14 0.48 0.59 0.68 0.66 0.58 0.50 0.42 0.37 0.40 0.42 0.40 0.34 0.28 0.24 0.22 0.20 0.20 0.22 0.21 0.21 0.19 0.17 0.15 0.12 0.11 0.10 0.09 0.08 0.08 0.07 0.07
0.05 0.12 0.18 0.12 0.06 0.02 0.01 0.01 0.01 0.01 0.01 0.02 0.15 0.54 0.75 0.82 0.73 0.67 0.60 0.50 0.50 0.59 0.60 0.51 0.38 0.28 0.22 0.20 0.20 0.20 0.21 0.20 0.16 0.13 0.10 0.09 0.08 0.08 0.07 0.07 0.07 0.06 0.07 0.08
0.05 0.16 0.29 0.37 0.22 0.07 0.04 0.03 0.03 0.04 0.05 0.07 0.21 0.46 0.62 0.86 0.91 0.77 0.69 0.64 0.64 0.68 0.59 0.46 0.37 0.30 0.26 0.22 0.21 0.18 0.16 0.14 0.11 0.08 0.07 0.07 0.07 0.07 0.08 0.08 0.09 0.08 0.09 0.09
0.08 0.24 0.27 0.28 0.13 0.09 0.09 0.07 0.07 0.08 0.11 0.19 0.38 0.60 0.73 0.98 1.05 0.90 0.74 0.66 0.64 0.62 0.58 0.54 0.48 0.40 0.31 0.24 0.20 0.17 0.16 0.13 0.11 0.09 0.09 0.09 0.09 0.09 0.10 0.11 0.12 0.11 0.11 0.09
0.06 0.16 0.19 0.19 0.15 0.13 0.13 0.12 0.13 0.17 0.22 0.33 0.53 0.83 1.01 1.01 0.93 0.85 0.75 0.67 0.69 0.78 0.80 0.75 0.63 0.51 0.38 0.31 0.28 0.24 0.21 0.17 0.13 0.13 0.14 0.14 0.14 0.15 0.16 0.16 0.15 0.15 0.13 0.11
0.06 0.09 0.15 0.18 0.13 0.16 0.29 0.26 0.26 0.30 0.32 0.40 0.54 0.67 0.73 0.79 0.82 0.84 0.82 0.82 0.88 0.93 0.89 0.80 0.67 0.56 0.50 0.46 0.41 0.36 0.31 0.26 0.23 0.22 0.21 0.20 0.19 0.19 0.18 0.16 0.14 0.12 0.10 0.08
0.05 0.10 0.16 0.15 0.16 0.34 0.43 0.28 0.27 0.26 0.25 0.29 0.35 0.41 0.50 0.61 0.73 0.83 0.90 0.98 1.08 1.12 1.07 0.94 0.78 0.67 0.59 0.52 0.46 0.39 0.33 0.28 0.26 0.26 0.25 0.23 0.20 0.18 0.15 0.12 0.10 0.08 0.07 0.07
0.02 0.08 0.16 0.19 0.28 0.38 0.35 0.22 0.23 0.30 0.31 0.26 0.26 0.30 0.37 0.45 0.57 0.83 0.96 1.01 1.05 1.07 1.00 0.89 0.76 0.67 0.61 0.53 0.45 0.38 0.33 0.30 0.28 0.26 0.21 0.16 0.12 0.10 0.08 0.07 0.06 0.06 0.06 0.06
0.02 0.05 0.16 0.24 0.40 0.50 0.44 0.19 0.14 0.25 0.42 0.34 0.26 0.25 0.33 0.45 0.60 0.66 0.71 0.76 0.77 0.74 0.69 0.65 0.62 0.60 0.55 0.46 0.38 0.34 0.31 0.26 0.22 0.15 0.11 0.07 0.05 0.05 0.05 0.05 0.06 0.06 0.06 0.06
0.11 0.12 0.23 0.34 0.46 0.52 0.23 0.11 0.17 0.43 0.58 0.51 0.41 0.40 0.44 0.54 0.56 0.46 0.42 0.48 0.52 0.54 0.58 0.56 0.53 0.51 0.45 0.34 0.27 0.24 0.20 0.16 0.12 0.08 0.05 0.03 0.02 0.02 0.03 0.05 0.07 0.08 0.08 0.08
0.24 0.29 0.33 0.40 0.52 0.60 0.22 0.16 0.32 0.40 0.36 0.44 0.44 0.46 0.47 0.45 0.37 0.32 0.32 0.36 0.42 0.48 0.53 0.52 0.48 0.41 0.31 0.23 0.19 0.18 0.14 0.08 0.06 0.06 0.05 0.03 0.02 0.02 0.02 0.07 0.10 0.10 0.10 0.10
0.44 0.38 0.40 0.46 0.51 0.36 0.17 0.17 0.20 0.23 0.28 0.29 0.30 0.33 0.40 0.44 0.40 0.34 0.36 0.41 0.46 0.49 0.50 0.45 0.37 0.29 0.19 0.14 0.13 0.13 0.10 0.06 0.06 0.07 0.07 0.05 0.04 0.03 0.03 0.07 0.10 0.11 0.11 0.08
0.52 0.40 0.37 0.39 0.39 0.28 0.18 0.15 0.14 0.17 0.23 0.24 0.27 0.30 0.39 0.55 0.58 0.51 0.46 0.47 0.48 0.44 0.36 0.27 0.20 0.15 0.11 0.08 0.06 0.06 0.05 0.04 0.06 0.08 0.06 0.05 0.07 0.07 0.07 0.09 0.07 0.08 0.08 0.06
0.36 0.52 0.60 0.62 0.55 0.41 0.26 0.18 0.19 0.19 0.24 0.30 0.38 0.40 0.43 0.47 0.50 0.51 0.49 0.42 0.34 0.25 0.18 0.14 0.11 0.09 0.05 0.04 0.02 0.02 0.02 0.03 0.06 0.07 0.05 0.05 0.06 0.07 0.12 0.12 0.06 0.04 0.05 0.02
0.14 0.39 0.77 0.93 0.70 0.58 0.44 0.35 0.37 0.37 0.36 0.36 0.35 0.35 0.35 0.32 0.30 0.32 0.32 0.27 0.19 0.13 0.10 0.09 0.07 0.04 0.02 0.01 0.01 0.00 0.00 0.01 0.04 0.07 0.06 0.04 0.04 0.05 0.07 0.12 0.13 0.04 0.01 0.00

GEFSCGP_prec_meanprecacc_084.txt.gz
Total_Precipitation_Accumulation
0.00 0.00 0.00 0.00 0.00 0.00 0.00 0.00 0.00 0.00 0.00 0.00 0.01 0.02 0.05 0.06 0.06 0.09 0.18 0.31 0.30 0.36 0.47 0.62 0.91 1.21 1.49 1.70 1.72 1.44 1.08 0.87 0.77 0.81 0.92 1.08 1.25 1.41 1.52 1.55 1.55 1.62 1.66 1.62
0.00 0.00 0.00 0.00 0.00 0.00 0.00 0.00 0.00 0.01 0.00 0.00 0.02 0.04 0.09 0.10 0.14 0.19 0.23 0.35 0.38 0.40 0.49 0.65 0.98 1.27 1.54 1.62 1.51 1.45 1.33 1.24 1.13 1.26 1.50 1.80 2.05 2.19 2.38 2.54 2.66 2.71 2.62 2.42
0.00 0.00 0.00 0.00 0.00 0.00 0.00 0.00 0.01 0.02 0.01 0.02 0.04 0.10 0.13 0.18 0.17 0.22 0.28 0.40 0.44 0.54 0.60 0.72 1.03 1.26 1.39 1.54 1.53 1.53 1.57 1.57 1.53 1.77 2.17 2.57 2.89 3.09 3.24 3.32 3.34 3.24 2.96 2.71
0.00 0.00 0.00 0.00 0.00 0.00 0.00 0.00 0.00 0.02 0.02 0.03 0.04 0.13 0.19 0.16 0.17 0.19 0.26 0.25 0.32 0.35 0.44 0.60 0.86 1.19 1.21 1.34 1.45 1.48 1.57 1.75 2.03 2.27 2.63 3.17 3.59 3.81 3.86 3.63 3.37 3.03 2.71 2.43
0.00 0.00 0.00 0.00 0.00 0.00 0.00 0.00 0.01 0.02 0.04 0.04 0.04 0.11 0.26 0.20 0.16 0.21 0.25 0.25 0.25 0.27 0.32 0.45 0.58 0.81 1.06 1.23 1.33 1.45 1.55 1.84 2.31 2.86 3.30 3.76 4.11 4.10 3.82 3.43 2.93 2.59 2.30 2.02
0.00 0.00 0.00 0.00 0.00 0.00 0.00 0.00 0.02 0.04 0.03 0.06 0.05 0.10 0.27 0.31 0.23 0.23 0.25 0.29 0.28 0.26 0.27 0.31 0.42 0.60 0.83 1.01 1.17 1.39 1.61 1.88 2.32 2.80 3.32 3.68 3.89 3.83 3.52 2.99 2.51 2.19 1.90 1.62
0.01 0.01 0.00 0.00 0.00 0.00 0.00 0.00 0.01 0.04 0.03 0.04 0.06 0.13 0.35 0.44 0.39 0.32 0.26 0.27 0.28 0.27 0.29 0.34 0.39 0.46 0.59 0.73 0.93 1.15 1.35 1.67 1.95 2.31 2.74 2.82 2.79 2.65 2.36 2.19 2.00 1.68 1.35 1.10
0.03 0.03 0.02 0.00 0.00 0.00 0.00 0.00 0.00 0.03 0.04 0.05 0.10 0.26 0.49 0.46 0.43 0.36 0.31 0.26 0.27 0.29 0.29 0.34 0.40 0.48 0.63 0.74 0.85 0.96 1.14 1.35 1.52 1.63 1.74 1.71 1.58 1.51 1.43 1.33 1.13 0.92 0.74 0.60
0.04 0.04 0.02 0.00 0.00 0.00 0.00 0.00 0.00 0.01 0.03 0.08 0.21 0.38 0.56 0.56 0.49 0.43 0.37 0.30 0.29 0.32 0.34 0.39 0.45 0.51 0.60 0.66 0.75 0.75 0.76 0.88 0.92 0.90 0.89 0.89 0.90 0.87 0.80 0.69 0.56 0.47 0.39 0.31
0.04 0.03 0.01 0.01 0.00 0.00 0.00 0.00 0.00 0.01 0.02 0.09 0.21 0.35 0.47 0.61 0.57 0.49 0.42 0.34 0.32 0.35 0.40 0.44 0.46 0.48 0.45 0.45 0.48 0.49 0.46 0.46 0.48 0.50 0.48 0.47 0.49 0.47 0.39 0.34 0.30 0.25 0.20 0.16
0.04 0.05 0.03 0.01 0.01 0.01 0.01 0.01 0.01 0.01 0.02 0.06 0.20 0.47 0.59 0.81 0.85 0.73 0.58 0.44 0.39 0.42 0.43 0.42 0.40 0.37 0.34 0.33 0.32 0.32 0.31 0.30 0.31 0.32 0.30 0.28 0.26 0.22 0.18 0.15 0.14 0.12 0.11 0.10
0.05 0.08 0.07 0.03 0.03 0.02 0.02 0.02 0.02 0.02 0.02 0.05 0.23 0.71 0.86 0.97 1.01 0.88 0.75 0.57 0.45 0.45 0.46 0.43 0.36 0.31 0.27 0.25 0.23 0.23 0.25 0.24 0.24 0.22 0.20 0.17 0.15 0.13 0.11 0.10 0.09 0.08 0.08 0.08
0.05 0.13 0.20 0.14 0.07 0.03 0.02 0.03 0.03 0.03 0.03 0.07 0.28 0.79 1.12 1.17 1.07 0.97 0.85 0.69 0.59 0.64 0.63 0.53 0.40 0.30 0.24 0.22 0.22 0.22 0.23 0.23 0.19 0.15 0.12 0.10 0.09 0.08 0.08 0.08 0.08 0.07 0.07 0.08
0.05 0.18 0.32 0.41 0.25 0.09 0.06 0.05 0.05 0.06 0.08 0.13 0.31 0.59 0.80 1.15 1.25 1.09 0.93 0.81 0.73 0.73 0.62 0.48 0.39 0.32 0.27 0.24 0.22 0.20 0.18 0.15 0.13 0.10 0.08 0.08 0.08 0.08 0.08 0.09 0.09 0.09 0.09 0.09
0.10 0.27 0.31 0.33 0.16 0.13 0.13 0.12 0.12 0.12 0.14 0.24 0.45 0.69 0.90 1.25 1.31 1.13 0.87 0.74 0.70 0.66 0.62 0.57 0.50 0.42 0.32 0.26 0.22 0.18 0.17 0.15 0.12 0.10 0.09 0.09 0.09 0.10 0.11 0.12 0.12 0.12 0.11 0.10
0.10 0.23 0.26 0.27 0.21 0.20 0.24 0.22 0.22 0.25 0.26 0.37 0.59 0.91 1.12 1.15 1.05 0.96 0.83 0.73 0.75 0.84 0.87 0.82 0.69 0.55 0.42 0.35 0.31 0.27 0.23 0.19 0.15 0.14 0.15 0.15 0.15 0.15 0.16 0.16 0.15 0.15 0.13 0.11
0.10 0.20 0.28 0.31 0.25 0.27 0.45 0.39 0.38 0.38 0.37 0.44 0.60 0.73 0.79 0.87 0.89 0.90 0.87 0.88 0.95 0.99 0.96 0.88 0.76 0.63 0.56 0.50 0.44 0.39 0.33 0.27 0.25 0.24 0.22 0.20 0.19 0.19 0.19 0.16 0.14 0.13 0.10 0.08
0.07 0.15 0.23 0.23 0.27 0.49 0.58 0.38 0.34 0.30 0.30 0.34 0.40 0.46 0.57 0.68 0.78 0.88 0.95 1.04 1.13 1.18 1.13 1.02 0.85 0.72 0.63 0.55 0.49 0.42 0.35 0.29 0.27 0.27 0.25 0.23 0.20 0.19 0.16 0.12 0.11 0.09 0.07 0.07
0.03 0.11 0.21 0.25 0.37 0.50 0.47 0.28 0.28 0.33 0.34 0.31 0.31 0.35 0.44 0.52 0.64 0.89 1.03 1.06 1.12 1.16 1.09 0.97 0.82 0.72 0.64 0.56 0.47 0.39 0.35 0.31 0.29 0.26 0.21 0.16 0.12 0.10 0.08 0.07 0.06 0.06 0.06 0.06
0.03 0.07 0.21 0.31 0.50 0.59 0.49 0.22 0.15 0.27 0.46 0.38 0.28 0.29 0.38 0.52 0.65 0.71 0.75 0.82 0.84 0.80 0.74 0.70 0.66 0.62 0.57 0.48 0.38 0.35 0.32 0.27 0.22 0.16 0.11 0.07 0.05 0.05 0.05 0.05 0.06 0.06 0.07 0.06
0.13 0.14 0.26 0.39 0.53 0.57 0.25 0.12 0.17 0.45 0.62 0.55 0.43 0.43 0.47 0.60 0.61 0.49 0.45 0.51 0.56 0.58 0.61 0.59 0.56 0.53 0.46 0.35 0.28 0.25 0.21 0.17 0.12 0.08 0.05 0.03 0.02 0.03 0.03 0.05 0.07 0.08 0.08 0.09
0.25 0.30 0.35 0.43 0.56 0.63 0.23 0.16 0.33 0.41 0.38 0.45 0.45 0.48 0.50 0.47 0.40 0.34 0.34 0.39 0.44 0.52 0.57 0.54 0.50 0.43 0.32 0.24 0.20 0.19 0.15 0.09 0.06 0.06 0.05 0.03 0.02 0.02 0.02 0.07 0.10 0.10 0.11 0.11
0.44 0.38 0.41 0.47 0.52 0.37 0.18 0.18 0.20 0.23 0.28 0.30 0.31 0.34 0.41 0.45 0.42 0.36 0.38 0.43 0.49 0.53 0.53 0.47 0.39 0.30 0.21 0.15 0.15 0.15 0.11 0.06 0.06 0.08 0.07 0.05 0.04 0.04 0.03 0.07 0.10 0.11 0.11 0.08
0.52 0.41 0.37 0.40 0.40 0.28 0.19 0.15 0.14 0.17 0.23 0.25 0.27 0.31 0.40 0.57 0.60 0.53 0.48 0.50 0.51 0.48 0.39 0.30 0.22 0.17 0.12 0.08 0.07 0.07 0.05 0.04 0.06 0.08 0.06 0.06 0.07 0.08 0.08 0.09 0.07 0.08 0.08 0.06
0.36 0.52 0.61 0.62 0.56 0.42 0.26 0.18 0.19 0.19 0.24 0.31 0.38 0.41 0.45 0.49 0.55 0.55 0.51 0.45 0.38 0.29 0.20 0.16 0.13 0.10 0.06 0.04 0.03 0.02 0.02 0.03 0.06 0.07 0.06 0.06 0.06 0.08 0.13 0.13 0.06 0.04 0.05 0.02
0.14 0.39 0.77 0.94 0.71 0.58 0.44 0.35 0.37 0.37 0.36 0.37 0.36 0.36 0.36 0.33 0.33 0.38 0.37 0.31 0.24 0.17 0.12 0.11 0.08 0.05 0.03 0.02 0.01 0.01 0.01 0.01 0.05 0.08 0.06 0.04 0.04 0.05 0.08 0.13 0.14 0.05 0.01 0.00

GEFSCGP_prec_meanprecacc_090.txt.gz
Total_Precipitation_Accumulation
0.00 0.00 0.00 0.00 0.00 0.00 0.00 0.00 0.00 0.00 0.00 0.00 0.01 0.03 0.07 0.07 0.08 0.11 0.20 0.33 0.33 0.39 0.52 0.69 1.03 1.37 1.72 2.06 2.15 1.93 1.61 1.41 1.32 1.34 1.35 1.48 1.65 1.79 1.94 2.01 1.98 1.98 1.97 1.88
0.00 0.00 0.00 0.00 0.00 0.00 0.00 0.00 0.00 0.01 0.01 0.01 0.02 0.07 0.12 0.13 0.16 0.21 0.25 0.39 0.42 0.45 0.56 0.73 1.10 1.44 1.81 2.06 2.01 2.04 2.01 1.94 1.79 1.89 2.08 2.33 2.54 2.62 2.77 2.98 3.10 3.07 2.90 2.66
0.00 0.00 0.00 0.00 0.00 0.00 0.00 0.00 0.01 0.02 0.03 0.04 0.07 0.14 0.18 0.24 0.22 0.27 0.32 0.44 0.49 0.59 0.69 0.84 1.17 1.42 1.66 1.98 2.09 2.16 2.35 2.35 2.24 2.51 2.88 3.22 3.46 3.52 3.58 3.61 3.64 3.52 3.21 2.94
0.00 0.00 0.00 0.00 0.00 0.00 0.00 0.00 0.00 0.02 0.03 0.05 0.07 0.16 0.24 0.23 0.23 0.25 0.31 0.30 0.37 0.40 0.50 0.71 1.00 1.36 1.47 1.73 1.91 1.99 2.24 2.50 2.74 3.03 3.41 3.84 4.11 4.24 4.19 3.92 3.64 3.28 2.94 2.62
0.00 0.00 0.00 0.00 0.00 0.00 0.00 0.00 0.01 0.02 0.04 0.05 0.05 0.13 0.29 0.26 0.20 0.26 0.30 0.29 0.29 0.32 0.37 0.53 0.69 0.96 1.25 1.49 1.67 1.82 2.01 2.37 2.92 3.51 3.96 4.33 4.57 4.46 4.08 3.65 3.12 2.74 2.43 2.15
0.00 0.00 0.00 0.00 0.00 0.00 0.00 0.00 0.02 0.04 0.04 0.06 0.06 0.11 0.30 0.36 0.30 0.29 0.29 0.33 0.32 0.30 0.31 0.38 0.49 0.69 0.93 1.13 1.36 1.63 1.90 2.21 2.73 3.27 3.79 4.13 4.29 4.16 3.75 3.17 2.65 2.30 1.99 1.72
0.01 0.01 0.00 0.00 0.00 0.00 0.00 0.00 0.01 0.04 0.03 0.05 0.07 0.15 0.37 0.47 0.46 0.38 0.31 0.32 0.33 0.31 0.33 0.39 0.46 0.55 0.68 0.83 1.05 1.31 1.59 1.97 2.30 2.69 3.15 3.23 3.16 2.94 2.56 2.30 2.08 1.75 1.41 1.16
0.03 0.03 0.02 0.00 0.00 0.00 0.00 0.00 0.00 0.03 0.05 0.06 0.12 0.28 0.51 0.49 0.47 0.42 0.37 0.32 0.34 0.34 0.33 0.40 0.47 0.57 0.72 0.84 0.98 1.13 1.35 1.63 1.85 1.98 2.09 2.06 1.86 1.70 1.56 1.41 1.19 0.97 0.78 0.64
0.04 0.05 0.02 0.01 0.00 0.00 0.00 0.00 0.00 0.01 0.04 0.10 0.23 0.41 0.60 0.60 0.54 0.51 0.46 0.38 0.37 0.38 0.40 0.46 0.51 0.58 0.70 0.76 0.86 0.88 0.91 1.04 1.10 1.12 1.12 1.14 1.12 1.02 0.91 0.77 0.63 0.53 0.43 0.34
0.04 0.04 0.02 0.01 0.01 0.00 0.00 0.00 0.01 0.01 0.03 0.10 0.23 0.38 0.50 0.67 0.65 0.60 0.53 0.45 0.42 0.44 0.47 0.50 0.52 0.53 0.53 0.54 0.56 0.59 0.59 0.61 0.62 0.64 0.61 0.61 0.62 0.59 0.50 0.43 0.37 0.29 0.23 0.17
0.04 0.05 0.03 0.02 0.02 0.01 0.01 0.01 0.01 0.01 0.02 0.07 0.21 0.48 0.61 0.86 0.95 0.85 0.70 0.54 0.49 0.52 0.50 0.49 0.46 0.42 0.39 0.38 0.38 0.39 0.41 0.43 0.46 0.46 0.43 0.39 0.36 0.31 0.29 0.23 0.19 0.15 0.12 0.11
0.05 0.08 0.08 0.03 0.03 0.02 0.02 0.03 0.02 0.02 0.02 0.06 0.25 0.75 0.91 1.02 1.09 0.98 0.89 0.71 0.58 0.54 0.52 0.48 0.42 0.36 0.30 0.28 0.28 0.29 0.31 0.31 0.31 0.32 0.31 0.28 0.23 0.20 0.17 0.13 0.11 0.09 0.09 0.09
0.06 0.13 0.20 0.14 0.07 0.04 0.04 0.04 0.04 0.04 0.04 0.08 0.29 0.82 1.18 1.21 1.10 1.04 0.97 0.84 0.74 0.76 0.73 0.61 0.46 0.34 0.27 0.26 0.26 0.26 0.26 0.26 0.23 0.19 0.17 0.16 0.13 0.11 0.10 0.09 0.09 0.08 0.08 0.09
0.06 0.19 0.33 0.42 0.25 0.10 0.08 0.07 0.07 0.07 0.09 0.14 0.32 0.60 0.82 1.18 1.31 1.16 1.01 0.92 0.86 0.87 0.77 0.62 0.50 0.39 0.32 0.28 0.26 0.24 0.20 0.18 0.16 0.13 0.11 0.11 0.10 0.09 0.09 0.09 0.09 0.09 0.09 0.10
0.11 0.28 0.32 0.34 0.17 0.13 0.14 0.14 0.13 0.13 0.16 0.26 0.46 0.71 0.91 1.27 1.34 1.20 0.96 0.83 0.79 0.76 0.74 0.70 0.60 0.49 0.37 0.30 0.26 0.22 0.20 0.19 0.16 0.13 0.12 0.11 0.11 0.10 0.11 0.12 0.12 0.12 0.11 0.10
0.10 0.23 0.27 0.28 0.23 0.21 0.25 0.23 0.24 0.26 0.28 0.39 0.60 0.93 1.13 1.17 1.07 1.00 0.89 0.80 0.83 0.91 0.94 0.90 0.76 0.62 0.50 0.41 0.36 0.31 0.28 0.23 0.18 0.16 0.17 0.16 0.15 0.16 0.16 0.16 0.15 0.15 0.13 0.11
0.10 0.20 0.29 0.33 0.27 0.29 0.47 0.41 0.39 0.40 0.40 0.46 0.61 0.74 0.80 0.88 0.91 0.93 0.92 0.94 1.03 1.08 1.03 0.94 0.82 0.69 0.62 0.56 0.49 0.42 0.36 0.30 0.26 0.25 0.23 0.21 0.19 0.20 0.19 0.16 0.14 0.13 0.10 0.08
0.08 0.15 0.25 0.25 0.28 0.51 0.60 0.40 0.35 0.32 0.31 0.35 0.41 0.47 0.58 0.70 0.81 0.90 0.99 1.10 1.21 1.26 1.22 1.10 0.92 0.79 0.68 0.59 0.52 0.45 0.37 0.32 0.29 0.28 0.26 0.23 0.20 0.19 0.16 0.12 0.11 0.09 0.07 0.07
0.04 0.12 0.21 0.26 0.38 0.51 0.51 0.30 0.29 0.33 0.35 0.31 0.32 0.36 0.45 0.54 0.66 0.92 1.06 1.12 1.18 1.23 1.17 1.04 0.87 0.76 0.68 0.58 0.49 0.42 0.37 0.33 0.30 0.27 0.22 0.17 0.12 0.11 0.08 0.07 0.06 0.06 0.06 0.06
0.04 0.07 0.21 0.32 0.51 0.60 0.52 0.25 0.16 0.28 0.47 0.39 0.29 0.29 0.39 0.54 0.68 0.74 0.78 0.86 0.88 0.84 0.78 0.74 0.70 0.65 0.59 0.49 0.40 0.37 0.34 0.28 0.23 0.16 0.11 0.07 0.05 0.05 0.05 0.05 0.06 0.06 0.07 0.06
0.13 0.14 0.26 0.39 0.54 0.58 0.26 0.13 0.19 0.46 0.62 0.55 0.44 0.43 0.48 0.62 0.64 0.51 0.46 0.53 0.59 0.61 0.63 0.61 0.58 0.55 0.49 0.38 0.30 0.27 0.24 0.19 0.12 0.08 0.05 0.03 0.02 0.03 0.03 0.05 0.07 0.08 0.08 0.09
0.26 0.31 0.36 0.43 0.56 0.63 0.24 0.16 0.33 0.42 0.38 0.45 0.46 0.48 0.50 0.48 0.42 0.38 0.36 0.41 0.47 0.55 0.59 0.56 0.51 0.44 0.34 0.25 0.22 0.21 0.17 0.10 0.07 0.06 0.05 0.03 0.02 0.02 0.03 0.07 0.10 0.10 0.11 0.11
0.44 0.39 0.41 0.47 0.52 0.37 0.18 0.18 0.20 0.24 0.28 0.30 0.31 0.34 0.41 0.45 0.43 0.39 0.41 0.47 0.52 0.55 0.57 0.50 0.40 0.31 0.22 0.16 0.16 0.17 0.13 0.08 0.07 0.08 0.07 0.05 0.04 0.04 0.03 0.07 0.10 0.11 0.11 0.08
0.53 0.41 0.37 0.40 0.40 0.28 0.19 0.16 0.15 0.18 0.24 0.25 0.28 0.31 0.40 0.57 0.61 0.54 0.50 0.55 0.55 0.50 0.41 0.32 0.24 0.19 0.13 0.09 0.08 0.09 0.07 0.06 0.07 0.08 0.06 0.06 0.07 0.08 0.08 0.09 0.07 0.08 0.08 0.06
0.37 0.52 0.61 0.63 0.56 0.42 0.26 0.19 0.19 0.20 0.25 0.32 0.39 0.42 0.45 0.50 0.55 0.55 0.53 0.47 0.40 0.32 0.23 0.17 0.15 0.12 0.08 0.05 0.04 0.03 0.03 0.04 0.06 0.07 0.06 0.06 0.06 0.08 0.13 0.13 0.06 0.04 0.05 0.02
0.15 0.39 0.77 0.94 0.71 0.58 0.44 0.35 0.37 0.37 0.37 0.38 0.37 0.37 0.38 0.34 0.34 0.39 0.39 0.33 0.25 0.20 0.16 0.13 0.10 0.06 0.04 0.03 0.02 0.01 0.01 0.01 0.05 0.08 0.06 0.04 0.04 0.06 0.08 0.13 0.14 0.05 0.01 0.00

GEFSCGP_prec_meanprecacc_096.txt.gz
Total_Precipitation_Accumulation
0.00 0.00 0.00 0.00 0.00 0.00 0.00 0.00 0.00 0.00 0.00 0.01 0.01 0.04 0.07 0.08 0.09 0.12 0.21 0.35 0.35 0.41 0.54 0.72 1.07 1.44 1.79 2.14 2.26 2.08 1.79 1.66 1.64 1.65 1.61 1.76 1.94 2.07 2.23 2.32 2.30 2.26 2.23 2.17
0.00 0.00 0.00 0.00 0.00 0.00 0.00 0.00 0.00 0.01 0.01 0.01 0.03 0.08 0.13 0.14 0.17 0.23 0.27 0.41 0.44 0.47 0.58 0.76 1.14 1.48 1.85 2.12 2.08 2.16 2.21 2.18 2.05 2.20 2.41 2.67 2.88 2.92 3.06 3.26 3.36 3.33 3.15 2.90
0.00 0.00 0.00 0.00 0.00 0.00 0.00 0.00 0.01 0.02 0.03 0.04 0.08 0.15 0.20 0.25 0.24 0.29 0.34 0.47 0.52 0.63 0.72 0.86 1.19 1.44 1.69 2.02 2.14 2.26 2.52 2.58 2.48 2.81 3.24 3.63 3.87 3.88 3.88 3.88 3.88 3.74 3.43 3.15
0.00 0.00 0.00 0.00 0.00 0.00 0.00 0.00 0.00 0.02 0.04 0.06 0.08 0.18 0.26 0.25 0.25 0.27 0.33 0.33 0.40 0.44 0.53 0.73 1.02 1.39 1.50 1.77 1.96 2.09 2.39 2.73 2.99 3.32 3.78 4.29 4.54 4.63 4.55 4.23 3.90 3.51 3.14 2.83
0.00 0.00 0.00 0.00 0.00 0.00 0.00 0.00 0.01 0.03 0.04 0.06 0.06 0.15 0.32 0.30 0.25 0.29 0.33 0.32 0.32 0.34 0.41 0.55 0.70 0.98 1.28 1.54 1.73 1.93 2.18 2.62 3.18 3.80 4.33 4.74 5.01 4.90 4.49 4.02 3.44 3.01 2.63 2.34
0.00 0.00 0.00 0.00 0.00 0.00 0.00 0.00 0.02 0.04 0.04 0.07 0.06 0.13 0.34 0.41 0.36 0.33 0.32 0.36 0.34 0.32 0.33 0.40 0.51 0.71 0.96 1.17 1.42 1.71 2.05 2.38 2.92 3.50 4.08 4.43 4.62 4.51 4.09 3.47 2.93 2.53 2.17 1.86
0.01 0.01 0.00 0.00 0.00 0.00 0.00 0.00 0.01 0.04 0.03 0.05 0.07 0.17 0.40 0.50 0.49 0.41 0.34 0.35 0.36 0.33 0.36 0.42 0.49 0.59 0.71 0.86 1.10 1.37 1.68 2.11 2.45 2.85 3.37 3.51 3.48 3.24 2.85 2.57 2.32 1.93 1.56 1.26
0.03 0.03 0.02 0.00 0.00 0.00 0.00 0.00 0.01 0.03 0.05 0.07 0.13 0.31 0.53 0.51 0.50 0.45 0.41 0.36 0.38 0.39 0.37 0.44 0.51 0.62 0.76 0.88 1.03 1.18 1.41 1.73 2.00 2.19 2.36 2.36 2.20 2.04 1.87 1.68 1.43 1.15 0.91 0.72
0.04 0.05 0.02 0.01 0.00 0.00 0.00 0.00 0.00 0.01 0.04 0.10 0.25 0.43 0.61 0.62 0.57 0.55 0.51 0.44 0.42 0.44 0.47 0.51 0.55 0.63 0.75 0.82 0.93 0.97 0.99 1.12 1.23 1.29 1.34 1.39 1.38 1.27 1.16 1.00 0.84 0.70 0.55 0.42
0.04 0.04 0.02 0.01 0.01 0.00 0.00 0.00 0.01 0.01 0.03 0.11 0.25 0.40 0.53 0.69 0.68 0.63 0.58 0.53 0.51 0.52 0.55 0.58 0.57 0.59 0.59 0.62 0.66 0.70 0.72 0.72 0.74 0.77 0.76 0.82 0.84 0.80 0.73 0.63 0.53 0.43 0.33 0.25
0.04 0.05 0.03 0.02 0.02 0.01 0.01 0.01 0.02 0.02 0.02 0.08 0.23 0.50 0.64 0.90 1.00 0.91 0.77 0.62 0.60 0.65 0.63 0.60 0.58 0.52 0.48 0.47 0.46 0.47 0.50 0.52 0.56 0.58 0.56 0.54 0.51 0.48 0.46 0.41 0.36 0.29 0.23 0.19
0.05 0.08 0.08 0.03 0.03 0.02 0.03 0.03 0.03 0.04 0.04 0.07 0.27 0.78 0.95 1.06 1.13 1.05 0.98 0.82 0.68 0.64 0.61 0.56 0.52 0.46 0.40 0.37 0.35 0.35 0.37 0.37 0.37 0.39 0.41 0.40 0.34 0.32 0.31 0.28 0.26 0.23 0.19 0.15
0.06 0.14 0.21 0.14 0.08 0.04 0.04 0.04 0.04 0.05 0.06 0.10 0.32 0.86 1.21 1.23 1.13 1.08 1.04 0.94 0.83 0.84 0.80 0.67 0.55 0.45 0.38 0.33 0.33 0.33 0.33 0.31 0.27 0.24 0.23 0.23 0.22 0.19 0.18 0.16 0.15 0.13 0.12 0.12
0.06 0.19 0.33 0.42 0.26 0.11 0.08 0.07 0.07 0.09 0.12 0.16 0.35 0.63 0.84 1.20 1.34 1.22 1.07 1.02 0.98 0.99 0.87 0.71 0.60 0.52 0.42 0.35 0.34 0.32 0.28 0.23 0.20 0.17 0.15 0.16 0.15 0.15 0.13 0.12 0.12 0.11 0.11 0.11
0.11 0.29 0.33 0.34 0.17 0.13 0.15 0.14 0.14 0.15 0.18 0.28 0.49 0.74 0.94 1.30 1.36 1.25 1.03 0.92 0.92 0.90 0.86 0.80 0.71 0.61 0.49 0.40 0.37 0.32 0.28 0.24 0.21 0.18 0.16 0.16 0.15 0.14 0.14 0.14 0.14 0.13 0.12 0.11
0.11 0.24 0.28 0.29 0.23 0.21 0.25 0.24 0.24 0.28 0.30 0.41 0.63 0.96 1.16 1.19 1.09 1.03 0.96 0.89 0.96 1.05 1.09 1.04 0.90 0.73 0.60 0.53 0.47 0.41 0.35 0.27 0.22 0.20 0.20 0.20 0.19 0.19 0.19 0.18 0.17 0.16 0.14 0.12
0.10 0.22 0.31 0.35 0.29 0.31 0.49 0.42 0.41 0.42 0.41 0.48 0.65 0.77 0.82 0.90 0.93 0.96 0.97 1.00 1.12 1.20 1.16 1.04 0.92 0.79 0.70 0.64 0.56 0.49 0.42 0.34 0.29 0.27 0.25 0.23 0.21 0.21 0.21 0.17 0.15 0.13 0.11 0.09
0.08 0.17 0.27 0.27 0.30 0.53 0.63 0.40 0.35 0.33 0.32 0.37 0.43 0.48 0.60 0.72 0.83 0.93 1.03 1.15 1.27 1.35 1.33 1.21 1.02 0.88 0.75 0.64 0.56 0.48 0.41 0.35 0.32 0.30 0.27 0.24 0.21 0.20 0.17 0.13 0.12 0.09 0.08 0.08
0.04 0.13 0.24 0.28 0.40 0.53 0.52 0.31 0.30 0.35 0.36 0.32 0.33 0.37 0.46 0.55 0.68 0.96 1.11 1.18 1.26 1.30 1.25 1.13 0.97 0.85 0.74 0.63 0.52 0.44 0.39 0.35 0.32 0.30 0.24 0.18 0.13 0.12 0.10 0.09 0.08 0.07 0.07 0.08
0.05 0.08 0.24 0.34 0.53 0.62 0.55 0.25 0.16 0.28 0.48 0.39 0.29 0.29 0.40 0.55 0.70 0.77 0.82 0.93 0.96 0.91 0.85 0.79 0.75 0.70 0.63 0.53 0.43 0.39 0.36 0.30 0.25 0.19 0.13 0.09 0.06 0.06 0.06 0.06 0.07 0.07 0.08 0.08
0.15 0.16 0.28 0.41 0.56 0.60 0.27 0.13 0.19 0.47 0.64 0.56 0.44 0.43 0.48 0.63 0.66 0.52 0.49 0.59 0.66 0.66 0.67 0.64 0.60 0.58 0.51 0.40 0.32 0.30 0.28 0.21 0.14 0.09 0.07 0.05 0.03 0.03 0.04 0.06 0.09 0.10 0.10 0.10
0.27 0.32 0.37 0.44 0.58 0.65 0.24 0.17 0.35 0.43 0.39 0.46 0.46 0.48 0.50 0.48 0.42 0.38 0.38 0.44 0.54 0.62 0.64 0.59 0.54 0.48 0.37 0.27 0.24 0.25 0.21 0.12 0.08 0.07 0.06 0.05 0.03 0.02 0.03 0.08 0.12 0.11 0.12 0.12
0.44 0.39 0.41 0.48 0.53 0.38 0.18 0.18 0.21 0.24 0.29 0.31 0.31 0.34 0.42 0.47 0.43 0.40 0.43 0.49 0.56 0.61 0.62 0.54 0.44 0.35 0.25 0.19 0.19 0.20 0.16 0.10 0.08 0.09 0.08 0.07 0.05 0.04 0.04 0.08 0.12 0.12 0.12 0.10
0.53 0.41 0.37 0.40 0.40 0.28 0.19 0.16 0.15 0.18 0.24 0.25 0.28 0.32 0.42 0.58 0.61 0.54 0.51 0.57 0.57 0.55 0.45 0.35 0.28 0.22 0.16 0.11 0.10 0.10 0.08 0.07 0.08 0.10 0.08 0.07 0.09 0.09 0.09 0.10 0.08 0.09 0.10 0.07
0.37 0.52 0.61 0.63 0.56 0.42 0.26 0.19 0.19 0.20 0.25 0.33 0.41 0.43 0.46 0.50 0.56 0.56 0.54 0.49 0.42 0.35 0.26 0.20 0.17 0.15 0.10 0.07 0.05 0.04 0.04 0.04 0.08 0.09 0.07 0.07 0.08 0.10 0.15 0.14 0.07 0.05 0.05 0.02
0.15 0.39 0.78 0.94 0.71 0.58 0.44 0.35 0.37 0.38 0.39 0.40 0.39 0.38 0.39 0.35 0.35 0.40 0.40 0.35 0.27 0.23 0.18 0.15 0.11 0.09 0.06 0.04 0.03 0.02 0.02 0.02 0.06 0.10 0.09 0.05 0.05 0.07 0.10 0.14 0.14 0.05 0.01 0.00